Time,TemperatureF,DewpointF,PressureIn,WindDirection,WindDirectionDegrees,WindSpeedMPH,WindSpeedGustMPH,Humidity,HourlyPrecipIn,Conditions,Clouds,dailyrainin,SoftwareType,DateUTC
2013-05-11 00:00:00,71.0,61.5,29.95,South,178,0.0,0.0,72,0.00,,,0.00,WeatherTracker,2013-05-11 04:00:00,
2013-05-11 00:01:00,71.0,61.5,29.95,South,178,0.0,0.0,72,0.00,,,0.00,WeatherTracker,2013-05-11 04:01:00,
2013-05-11 00:02:00,71.0,61.9,29.95,South,178,0.0,0.0,73,0.00,,,0.00,WeatherTracker,2013-05-11 04:02:00,
2013-05-11 00:03:00,70.9,61.4,29.95,South,178,0.0,0.0,72,0.00,,,0.00,WeatherTracker,2013-05-11 04:03:00,
2013-05-11 00:06:00,70.9,61.4,29.95,South,178,0.0,0.0,72,0.00,,,0.00,WeatherTracker,2013-05-11 04:06:00,
2013-05-11 00:07:00,70.9,61.4,29.95,South,178,0.0,0.0,72,0.00,,,0.00,WeatherTracker,2013-05-11 04:07:00,
2013-05-11 00:08:00,70.9,61.4,29.95,South,178,0.0,0.0,72,0.00,,,0.00,WeatherTracker,2013-05-11 04:08:00,
2013-05-11 00:09:00,70.9,61.4,29.95,South,178,0.0,0.0,72,0.00,,,0.00,WeatherTracker,2013-05-11 04:09:00,
2013-05-11 00:11:00,70.9,61.4,29.95,South,178,0.0,0.0,72,0.00,,,0.00,WeatherTracker,2013-05-11 04:11:00,
2013-05-11 00:13:00,71.0,61.5,29.95,South,178,0.0,0.0,72,0.00,,,0.00,WeatherTracker,2013-05-11 04:13:00,
2013-05-11 00:14:00,71.0,61.5,29.94,South,178,0.0,0.0,72,0.00,,,0.00,WeatherTracker,2013-05-11 04:14:00,
2013-05-11 00:16:00,71.0,61.5,29.94,South,178,0.0,0.0,72,0.00,,,0.00,WeatherTracker,2013-05-11 04:16:00,
2013-05-11 00:17:00,71.0,61.5,29.94,South,178,1.0,0.0,72,0.00,,,0.00,WeatherTracker,2013-05-11 04:17:00,
2013-05-11 00:19:00,71.0,61.5,29.94,South,178,1.0,0.0,72,0.00,,,0.00,WeatherTracker,2013-05-11 04:19:00,
2013-05-11 00:22:00,71.0,61.5,29.94,South,178,0.0,0.0,72,0.00,,,0.00,WeatherTracker,2013-05-11 04:22:00,
2013-05-11 00:23:00,70.9,61.4,29.94,South,178,0.0,0.0,72,0.00,,,0.00,WeatherTracker,2013-05-11 04:23:00,
2013-05-11 00:24:00,70.9,61.4,29.95,South,178,0.0,0.0,72,0.00,,,0.00,WeatherTracker,2013-05-11 04:24:00,
2013-05-11 00:25:00,70.9,61.4,29.94,South,178,0.0,0.0,72,0.00,,,0.00,WeatherTracker,2013-05-11 04:25:00,
2013-05-11 00:28:00,70.8,61.3,29.94,South,178,0.0,0.0,72,0.00,,,0.00,WeatherTracker,2013-05-11 04:28:00,
2013-05-11 00:29:00,70.8,61.3,29.94,South,178,1.0,0.0,72,0.00,,,0.00,WeatherTracker,2013-05-11 04:29:00,
2013-05-11 00:30:00,70.8,61.3,29.94,South,178,0.0,0.0,72,0.00,,,0.00,WeatherTracker,2013-05-11 04:30:00,
2013-05-11 00:31:00,70.8,61.3,29.94,South,176,0.0,0.0,72,0.00,,,0.00,WeatherTracker,2013-05-11 04:31:00,
2013-05-11 00:34:00,70.9,61.0,29.94,ESE,120,0.0,0.0,71,0.00,,,0.00,WeatherTracker,2013-05-11 04:34:00,
2013-05-11 00:35:00,70.9,61.0,29.94,ESE,120,0.0,0.0,71,0.00,,,0.00,WeatherTracker,2013-05-11 04:35:00,
2013-05-11 00:36:00,70.9,61.0,29.94,ESE,120,0.0,0.0,71,0.00,,,0.00,WeatherTracker,2013-05-11 04:36:00,
2013-05-11 00:37:00,70.9,61.0,29.94,ESE,120,0.0,0.0,71,0.00,,,0.00,WeatherTracker,2013-05-11 04:37:00,
2013-05-11 00:40:00,70.9,61.0,29.94,ESE,119,0.0,0.0,71,0.00,,,0.00,WeatherTracker,2013-05-11 04:40:00,
2013-05-11 00:41:00,70.9,61.0,29.94,ESE,119,0.0,0.0,71,0.00,,,0.00,WeatherTracker,2013-05-11 04:41:00,
2013-05-11 00:42:00,70.9,61.0,29.94,ESE,119,0.0,0.0,71,0.00,,,0.00,WeatherTracker,2013-05-11 04:42:00,
2013-05-11 00:43:00,70.9,61.0,29.94,ESE,119,0.0,0.0,71,0.00,,,0.00,WeatherTracker,2013-05-11 04:43:00,
2013-05-11 00:45:00,70.9,61.0,29.94,ESE,119,0.0,0.0,71,0.00,,,0.00,WeatherTracker,2013-05-11 04:45:00,
2013-05-11 00:46:00,70.9,61.0,29.94,ESE,119,0.0,0.0,71,0.00,,,0.00,WeatherTracker,2013-05-11 04:46:00,
2013-05-11 00:47:00,70.9,61.0,29.94,ESE,119,0.0,0.0,71,0.00,,,0.00,WeatherTracker,2013-05-11 04:47:00,
2013-05-11 00:48:00,70.9,61.0,29.94,ESE,119,0.0,0.0,71,0.00,,,0.00,WeatherTracker,2013-05-11 04:48:00,
2013-05-11 00:50:00,70.9,61.0,29.94,ESE,119,0.0,0.0,71,0.00,,,0.00,WeatherTracker,2013-05-11 04:50:00,
2013-05-11 00:51:00,70.9,61.0,29.94,ESE,119,0.0,0.0,71,0.00,,,0.00,WeatherTracker,2013-05-11 04:51:00,
2013-05-11 00:52:00,70.8,60.9,29.94,ESE,119,0.0,0.0,71,0.00,,,0.00,WeatherTracker,2013-05-11 04:52:00,
2013-05-11 00:53:00,70.8,61.3,29.94,ESE,119,0.0,0.0,72,0.00,,,0.00,WeatherTracker,2013-05-11 04:53:00,
2013-05-11 00:56:00,70.7,61.2,29.95,ESE,119,0.0,0.0,72,0.00,,,0.00,WeatherTracker,2013-05-11 04:56:00,
2013-05-11 00:57:00,70.7,61.2,29.95,ESE,119,0.0,0.0,72,0.00,,,0.00,WeatherTracker,2013-05-11 04:57:00,
2013-05-11 00:58:00,70.7,61.2,29.95,ESE,105,1.0,0.0,72,0.00,,,0.00,WeatherTracker,2013-05-11 04:58:00,
2013-05-11 00:59:00,70.7,61.2,29.95,ESE,105,0.0,0.0,72,0.00,,,0.00,WeatherTracker,2013-05-11 04:59:00,
2013-05-11 01:01:00,70.7,61.2,29.95,ESE,105,0.0,0.0,72,0.00,,,0.00,WeatherTracker,2013-05-11 05:01:00,
2013-05-11 01:02:00,70.7,61.2,29.95,ESE,105,0.0,0.0,72,0.00,,,0.00,WeatherTracker,2013-05-11 05:02:00,
2013-05-11 01:03:00,70.7,61.2,29.95,ESE,105,0.0,0.0,72,0.00,,,0.00,WeatherTracker,2013-05-11 05:03:00,
2013-05-11 01:04:00,70.7,61.2,29.95,ESE,105,0.0,0.0,72,0.00,,,0.00,WeatherTracker,2013-05-11 05:04:00,
2013-05-11 01:06:00,70.6,61.1,29.95,NNW,331,2.0,0.0,72,0.00,,,0.00,WeatherTracker,2013-05-11 05:06:00,
2013-05-11 01:08:00,70.6,61.1,29.95,NNW,331,0.0,0.0,72,0.00,,,0.00,WeatherTracker,2013-05-11 05:08:00,
2013-05-11 01:09:00,70.6,61.5,29.95,NNW,331,0.0,0.0,73,0.00,,,0.00,WeatherTracker,2013-05-11 05:09:00,
2013-05-11 01:11:00,70.6,61.1,29.95,NNW,331,0.0,0.0,72,0.00,,,0.00,WeatherTracker,2013-05-11 05:11:00,
2013-05-11 01:12:00,70.6,61.5,29.95,NNW,331,0.0,0.0,73,0.00,,,0.00,WeatherTracker,2013-05-11 05:12:00,
2013-05-11 01:13:00,70.6,61.1,29.95,North,9,0.0,0.0,72,0.00,,,0.00,WeatherTracker,2013-05-11 05:13:00,
2013-05-11 01:14:00,70.6,61.5,29.95,North,9,0.0,0.0,73,0.00,,,0.00,WeatherTracker,2013-05-11 05:14:00,
2013-05-11 01:17:00,70.6,61.5,29.95,North,9,0.0,0.0,73,0.00,,,0.00,WeatherTracker,2013-05-11 05:17:00,
2013-05-11 01:19:00,70.6,61.5,29.95,North,9,0.0,0.0,73,0.00,,,0.00,WeatherTracker,2013-05-11 05:19:00,
2013-05-11 01:20:00,70.6,61.5,29.95,North,5,0.0,0.0,73,0.00,,,0.00,WeatherTracker,2013-05-11 05:20:00,
2013-05-11 01:23:00,70.6,61.5,29.95,North,5,0.0,0.0,73,0.00,,,0.00,WeatherTracker,2013-05-11 05:23:00,
2013-05-11 01:24:00,70.6,61.5,29.95,North,5,0.0,0.0,73,0.00,,,0.00,WeatherTracker,2013-05-11 05:24:00,
2013-05-11 01:26:00,70.6,61.5,29.95,ESE,108,1.0,0.0,73,0.00,,,0.00,WeatherTracker,2013-05-11 05:26:00,
2013-05-11 01:28:00,70.6,61.1,29.95,SSE,157,0.0,0.0,72,0.00,,,0.00,WeatherTracker,2013-05-11 05:28:00,
2013-05-11 01:29:00,70.7,61.2,29.95,SSE,157,1.0,0.0,72,0.00,,,0.00,WeatherTracker,2013-05-11 05:29:00,
2013-05-11 01:30:00,70.7,61.2,29.95,SSE,157,0.0,0.0,72,0.00,,,0.00,WeatherTracker,2013-05-11 05:30:00,
2013-05-11 01:31:00,70.7,61.2,29.95,SSE,157,0.0,0.0,72,0.00,,,0.00,WeatherTracker,2013-05-11 05:31:00,
2013-05-11 01:33:00,70.8,61.3,29.95,SSW,202,0.0,0.0,72,0.00,,,0.00,WeatherTracker,2013-05-11 05:33:00,
2013-05-11 01:35:00,70.8,61.3,29.95,SSW,202,0.0,0.0,72,0.00,,,0.00,WeatherTracker,2013-05-11 05:35:00,
2013-05-11 01:36:00,70.8,61.3,29.95,SSW,202,0.0,0.0,72,0.00,,,0.00,WeatherTracker,2013-05-11 05:36:00,
2013-05-11 01:38:00,70.8,61.3,29.94,SSW,202,0.0,0.0,72,0.00,,,0.00,WeatherTracker,2013-05-11 05:38:00,
2013-05-11 01:40:00,70.9,61.4,29.94,SSW,202,0.0,0.0,72,0.00,,,0.00,WeatherTracker,2013-05-11 05:40:00,
2013-05-11 01:41:00,70.9,61.4,29.95,SSW,202,0.0,0.0,72,0.00,,,0.00,WeatherTracker,2013-05-11 05:41:00,
2013-05-11 01:43:00,70.9,61.4,29.95,SSW,202,1.0,0.0,72,0.00,,,0.00,WeatherTracker,2013-05-11 05:43:00,
2013-05-11 01:46:00,70.9,61.4,29.94,North,355,5.0,0.0,72,0.00,,,0.00,WeatherTracker,2013-05-11 05:46:00,
2013-05-11 01:47:00,70.9,61.4,29.94,WSW,238,0.0,0.0,72,0.00,,,0.00,WeatherTracker,2013-05-11 05:47:00,
2013-05-11 01:48:00,71.0,61.5,29.94,WSW,238,0.0,0.0,72,0.00,,,0.00,WeatherTracker,2013-05-11 05:48:00,
2013-05-11 01:49:00,71.0,61.5,29.94,WSW,238,1.0,0.0,72,0.00,,,0.00,WeatherTracker,2013-05-11 05:49:00,
2013-05-11 01:51:00,71.0,61.5,29.94,SW,229,0.0,0.0,72,0.00,,,0.00,WeatherTracker,2013-05-11 05:51:00,
2013-05-11 01:52:00,71.0,61.5,29.94,SW,234,0.0,0.0,72,0.00,,,0.00,WeatherTracker,2013-05-11 05:52:00,
2013-05-11 01:53:00,71.0,61.5,29.94,SW,235,1.0,0.0,72,0.00,,,0.00,WeatherTracker,2013-05-11 05:53:00,
2013-05-11 01:55:00,71.0,61.5,29.94,SW,235,0.0,0.0,72,0.00,,,0.00,WeatherTracker,2013-05-11 05:55:00,
2013-05-11 01:56:00,71.0,61.5,29.94,SW,235,0.0,0.0,72,0.00,,,0.00,WeatherTracker,2013-05-11 05:56:00,
2013-05-11 01:57:00,71.0,61.5,29.94,SW,235,0.0,0.0,72,0.00,,,0.00,WeatherTracker,2013-05-11 05:57:00,
2013-05-11 01:59:00,70.9,61.4,29.94,SW,235,0.0,0.0,72,0.00,,,0.00,WeatherTracker,2013-05-11 05:59:00,
2013-05-11 02:00:00,70.9,61.4,29.94,SW,235,1.0,0.0,72,0.00,,,0.00,WeatherTracker,2013-05-11 06:00:00,
2013-05-11 02:01:00,70.9,61.0,29.94,NW,307,0.0,0.0,71,0.00,,,0.00,WeatherTracker,2013-05-11 06:01:00,
2013-05-11 02:02:00,70.9,61.4,29.94,NW,308,2.0,0.0,72,0.00,,,0.00,WeatherTracker,2013-05-11 06:02:00,
2013-05-11 02:04:00,71.0,61.1,29.94,WSW,246,0.0,0.0,71,0.00,,,0.00,WeatherTracker,2013-05-11 06:04:00,
2013-05-11 02:05:00,70.9,61.4,29.94,WSW,246,1.0,0.0,72,0.00,,,0.00,WeatherTracker,2013-05-11 06:05:00,
2013-05-11 02:06:00,70.9,61.4,29.94,WSW,246,0.0,0.0,72,0.00,,,0.00,WeatherTracker,2013-05-11 06:06:00,
2013-05-11 02:08:00,70.9,61.4,29.94,WSW,246,0.0,0.0,72,0.00,,,0.00,WeatherTracker,2013-05-11 06:08:00,
2013-05-11 02:09:00,70.9,61.4,29.94,WSW,246,0.0,0.0,72,0.00,,,0.00,WeatherTracker,2013-05-11 06:09:00,
2013-05-11 02:10:00,70.9,61.4,29.94,WSW,251,1.0,0.0,72,0.00,,,0.00,WeatherTracker,2013-05-11 06:10:00,
2013-05-11 02:12:00,70.9,61.4,29.94,WSW,251,2.0,0.0,72,0.00,,,0.00,WeatherTracker,2013-05-11 06:12:00,
2013-05-11 02:13:00,70.9,61.4,29.94,WSW,250,1.0,0.0,72,0.00,,,0.00,WeatherTracker,2013-05-11 06:13:00,
2013-05-11 02:14:00,70.8,61.3,29.94,WNW,302,2.0,0.0,72,0.00,,,0.00,WeatherTracker,2013-05-11 06:14:00,
2013-05-11 02:15:00,70.8,61.3,29.94,ESE,102,2.0,0.0,72,0.00,,,0.00,WeatherTracker,2013-05-11 06:15:00,
2013-05-11 02:17:00,70.8,61.3,29.93,SSW,200,1.0,0.0,72,0.00,,,0.00,WeatherTracker,2013-05-11 06:17:00,
2013-05-11 02:18:00,70.8,61.3,29.93,SSW,200,0.0,0.0,72,0.00,,,0.00,WeatherTracker,2013-05-11 06:18:00,
2013-05-11 02:19:00,70.8,61.3,29.93,SW,218,2.0,0.0,72,0.00,,,0.00,WeatherTracker,2013-05-11 06:19:00,
2013-05-11 02:20:00,70.8,61.3,29.93,SW,236,3.0,0.0,72,0.00,,,0.00,WeatherTracker,2013-05-11 06:20:00,
2013-05-11 02:22:00,70.7,61.2,29.93,West,271,0.0,0.0,72,0.00,,,0.00,WeatherTracker,2013-05-11 06:22:00,
2013-05-11 02:23:00,70.8,61.3,29.93,NNW,345,1.0,0.0,72,0.00,,,0.00,WeatherTracker,2013-05-11 06:23:00,
2013-05-11 02:24:00,70.8,61.3,29.93,NNW,334,0.0,0.0,72,0.00,,,0.00,WeatherTracker,2013-05-11 06:24:00,
2013-05-11 02:25:00,70.7,61.2,29.93,NNW,334,1.0,0.0,72,0.00,,,0.00,WeatherTracker,2013-05-11 06:25:00,
2013-05-11 02:26:00,70.7,61.2,29.93,SW,217,3.0,0.0,72,0.00,,,0.00,WeatherTracker,2013-05-11 06:26:00,
2013-05-11 02:28:00,70.8,61.3,29.93,SW,223,0.0,0.0,72,0.00,,,0.00,WeatherTracker,2013-05-11 06:28:00,
2013-05-11 02:29:00,70.8,61.3,29.93,SW,227,2.0,0.0,72,0.00,,,0.00,WeatherTracker,2013-05-11 06:29:00,
2013-05-11 02:30:00,70.8,61.3,29.93,SW,227,0.0,0.0,72,0.00,,,0.00,WeatherTracker,2013-05-11 06:30:00,
2013-05-11 02:31:00,70.7,61.2,29.93,SW,227,2.0,0.0,72,0.00,,,0.00,WeatherTracker,2013-05-11 06:31:00,
2013-05-11 02:35:00,70.7,61.2,29.93,SW,228,0.0,0.0,72,0.00,,,0.00,WeatherTracker,2013-05-11 06:35:00,
2013-05-11 02:36:00,70.8,61.3,29.93,SW,228,1.0,0.0,72,0.00,,,0.00,WeatherTracker,2013-05-11 06:36:00,
2013-05-11 02:38:00,70.8,61.3,29.93,SW,228,1.0,0.0,72,0.00,,,0.00,WeatherTracker,2013-05-11 06:38:00,
2013-05-11 02:40:00,70.7,61.2,29.93,SW,219,0.0,0.0,72,0.00,,,0.00,WeatherTracker,2013-05-11 06:40:00,
2013-05-11 02:41:00,70.7,61.2,29.93,SW,219,1.0,0.0,72,0.00,,,0.00,WeatherTracker,2013-05-11 06:41:00,
2013-05-11 02:43:00,70.7,61.2,29.92,NW,311,1.0,0.0,72,0.00,,,0.00,WeatherTracker,2013-05-11 06:43:00,
2013-05-11 02:45:00,70.7,61.2,29.92,NW,325,0.0,0.0,72,0.00,,,0.00,WeatherTracker,2013-05-11 06:45:00,
2013-05-11 02:46:00,70.7,61.2,29.92,WNW,284,0.0,0.0,72,0.00,,,0.00,WeatherTracker,2013-05-11 06:46:00,
2013-05-11 02:47:00,70.6,61.1,29.92,WNW,284,0.0,0.0,72,0.00,,,0.00,WeatherTracker,2013-05-11 06:47:00,
2013-05-11 02:48:00,70.6,61.1,29.92,WNW,284,0.0,0.0,72,0.00,,,0.00,WeatherTracker,2013-05-11 06:48:00,
2013-05-11 02:51:00,70.5,61.0,29.92,West,259,0.0,0.0,72,0.00,,,0.00,WeatherTracker,2013-05-11 06:51:00,
2013-05-11 02:52:00,70.6,61.1,29.92,West,259,0.0,0.0,72,0.00,,,0.00,WeatherTracker,2013-05-11 06:52:00,
2013-05-11 02:53:00,70.5,61.0,29.92,West,259,0.0,0.0,72,0.00,,,0.00,WeatherTracker,2013-05-11 06:53:00,
2013-05-11 02:54:00,70.5,61.0,29.92,West,273,0.0,0.0,72,0.00,,,0.00,WeatherTracker,2013-05-11 06:54:00,
2013-05-11 02:55:00,70.5,61.4,29.92,West,273,0.0,0.0,73,0.00,,,0.00,WeatherTracker,2013-05-11 06:55:00,
2013-05-11 02:56:00,70.5,61.4,29.92,West,273,0.0,0.0,73,0.00,,,0.00,WeatherTracker,2013-05-11 06:56:00,
2013-05-11 02:58:00,70.4,60.9,29.92,West,273,0.0,0.0,72,0.00,,,0.00,WeatherTracker,2013-05-11 06:58:00,
2013-05-11 02:59:00,70.4,60.9,29.92,West,273,0.0,0.0,72,0.00,,,0.00,WeatherTracker,2013-05-11 06:59:00,
2013-05-11 03:00:00,70.4,61.3,29.92,West,273,0.0,0.0,73,0.00,,,0.00,WeatherTracker,2013-05-11 07:00:00,
2013-05-11 03:02:00,70.3,61.2,29.92,West,273,0.0,0.0,73,0.00,,,0.00,WeatherTracker,2013-05-11 07:02:00,
2013-05-11 03:04:00,70.3,61.2,29.92,West,269,0.0,0.0,73,0.00,,,0.00,WeatherTracker,2013-05-11 07:04:00,
2013-05-11 03:05:00,70.2,61.1,29.92,West,269,0.0,0.0,73,0.00,,,0.00,WeatherTracker,2013-05-11 07:05:00,
2013-05-11 03:06:00,70.2,61.1,29.92,West,269,0.0,0.0,73,0.00,,,0.00,WeatherTracker,2013-05-11 07:06:00,
2013-05-11 03:07:00,70.2,61.1,29.92,West,269,0.0,0.0,73,0.00,,,0.00,WeatherTracker,2013-05-11 07:07:00,
2013-05-11 03:09:00,70.1,61.0,29.92,West,272,1.0,0.0,73,0.00,,,0.00,WeatherTracker,2013-05-11 07:09:00,
2013-05-11 03:10:00,70.1,61.0,29.92,West,272,0.0,0.0,73,0.00,,,0.00,WeatherTracker,2013-05-11 07:10:00,
2013-05-11 03:12:00,70.1,61.0,29.92,West,272,0.0,0.0,73,0.00,,,0.00,WeatherTracker,2013-05-11 07:12:00,
2013-05-11 03:15:00,70.0,61.3,29.92,West,272,0.0,0.0,74,0.00,,,0.00,WeatherTracker,2013-05-11 07:15:00,
2013-05-11 03:16:00,69.9,61.2,29.92,West,272,0.0,0.0,74,0.00,,,0.00,WeatherTracker,2013-05-11 07:16:00,
2013-05-11 03:17:00,69.9,61.2,29.92,West,277,1.0,0.0,74,0.00,,,0.00,WeatherTracker,2013-05-11 07:17:00,
2013-05-11 03:18:00,69.9,61.2,29.92,West,278,0.0,0.0,74,0.00,,,0.00,WeatherTracker,2013-05-11 07:18:00,
2013-05-11 03:21:00,69.8,61.1,29.91,West,281,0.0,0.0,74,0.00,,,0.00,WeatherTracker,2013-05-11 07:21:00,
2013-05-11 03:22:00,69.8,61.1,29.91,West,281,0.0,0.0,74,0.00,,,0.00,WeatherTracker,2013-05-11 07:22:00,
2013-05-11 03:23:00,69.8,61.1,29.92,West,281,0.0,0.0,74,0.00,,,0.00,WeatherTracker,2013-05-11 07:23:00,
2013-05-11 03:26:00,69.7,61.0,29.92,West,281,0.0,0.0,74,0.00,,,0.00,WeatherTracker,2013-05-11 07:26:00,
2013-05-11 03:27:00,69.7,61.0,29.92,West,281,0.0,0.0,74,0.00,,,0.00,WeatherTracker,2013-05-11 07:27:00,
2013-05-11 03:28:00,69.7,61.0,29.92,West,281,0.0,0.0,74,0.00,,,0.00,WeatherTracker,2013-05-11 07:28:00,
2013-05-11 03:29:00,69.7,61.0,29.92,West,281,0.0,0.0,74,0.00,,,0.00,WeatherTracker,2013-05-11 07:29:00,
2013-05-11 03:30:00,69.7,61.0,29.92,West,281,0.0,0.0,74,0.00,,,0.00,WeatherTracker,2013-05-11 07:30:00,
2013-05-11 03:31:00,69.7,61.0,29.92,West,281,0.0,0.0,74,0.00,,,0.00,WeatherTracker,2013-05-11 07:31:00,
2013-05-11 03:32:00,69.7,61.0,29.92,West,281,0.0,0.0,74,0.00,,,0.00,WeatherTracker,2013-05-11 07:32:00,
2013-05-11 03:34:00,69.6,60.9,29.92,West,281,0.0,0.0,74,0.00,,,0.00,WeatherTracker,2013-05-11 07:34:00,
2013-05-11 03:35:00,69.6,60.9,29.92,West,281,0.0,0.0,74,0.00,,,0.00,WeatherTracker,2013-05-11 07:35:00,
2013-05-11 03:36:00,69.6,60.9,29.92,West,281,0.0,0.0,74,0.00,,,0.00,WeatherTracker,2013-05-11 07:36:00,
2013-05-11 03:37:00,69.6,60.9,29.92,West,281,0.0,0.0,74,0.00,,,0.00,WeatherTracker,2013-05-11 07:37:00,
2013-05-11 03:39:00,69.6,60.9,29.92,West,281,0.0,0.0,74,0.00,,,0.00,WeatherTracker,2013-05-11 07:39:00,
2013-05-11 03:40:00,69.5,60.8,29.91,West,281,0.0,0.0,74,0.00,,,0.00,WeatherTracker,2013-05-11 07:40:00,
2013-05-11 03:42:00,69.5,61.2,29.91,NW,323,2.0,0.0,75,0.00,,,0.00,WeatherTracker,2013-05-11 07:42:00,
2013-05-11 03:43:00,69.5,61.2,29.91,NW,323,0.0,0.0,75,0.00,,,0.00,WeatherTracker,2013-05-11 07:43:00,
2013-05-11 03:45:00,69.5,61.2,29.91,NW,323,0.0,0.0,75,0.00,,,0.00,WeatherTracker,2013-05-11 07:45:00,
2013-05-11 03:47:00,69.5,61.2,29.91,NW,323,1.0,0.0,75,0.00,,,0.00,WeatherTracker,2013-05-11 07:47:00,
2013-05-11 03:48:00,69.4,61.1,29.91,NW,323,0.0,0.0,75,0.00,,,0.00,WeatherTracker,2013-05-11 07:48:00,
2013-05-11 03:50:00,69.4,61.1,29.91,NW,318,1.0,0.0,75,0.00,,,0.00,WeatherTracker,2013-05-11 07:50:00,
2013-05-11 03:51:00,69.4,61.1,29.91,NW,318,1.0,0.0,75,0.00,,,0.00,WeatherTracker,2013-05-11 07:51:00,
2013-05-11 03:52:00,69.3,61.0,29.91,NW,318,0.0,0.0,75,0.00,,,0.00,WeatherTracker,2013-05-11 07:52:00,
2013-05-11 03:53:00,69.3,61.0,29.91,NNE,18,1.0,0.0,75,0.00,,,0.00,WeatherTracker,2013-05-11 07:53:00,
2013-05-11 03:54:00,69.3,61.0,29.91,North,355,1.0,0.0,75,0.00,,,0.00,WeatherTracker,2013-05-11 07:54:00,
2013-05-11 03:55:00,69.3,61.0,29.91,North,355,0.0,0.0,75,0.00,,,0.00,WeatherTracker,2013-05-11 07:55:00,
2013-05-11 03:56:00,69.2,60.9,29.91,North,355,1.0,0.0,75,0.00,,,0.00,WeatherTracker,2013-05-11 07:56:00,
2013-05-11 03:57:00,69.2,60.9,29.91,North,355,0.0,0.0,75,0.00,,,0.00,WeatherTracker,2013-05-11 07:57:00,
2013-05-11 03:58:00,69.2,60.9,29.91,North,355,0.0,0.0,75,0.00,,,0.00,WeatherTracker,2013-05-11 07:58:00,
2013-05-11 04:00:00,69.2,61.3,29.91,NE,55,1.0,0.0,76,0.00,,,0.00,WeatherTracker,2013-05-11 08:00:00,
2013-05-11 04:01:00,69.1,61.2,29.91,NE,43,1.0,0.0,76,0.00,,,0.00,WeatherTracker,2013-05-11 08:01:00,
2013-05-11 04:02:00,69.1,61.2,29.91,NE,42,0.0,0.0,76,0.00,,,0.00,WeatherTracker,2013-05-11 08:02:00,
2013-05-11 04:03:00,69.1,61.2,29.91,NE,42,0.0,0.0,76,0.00,,,0.00,WeatherTracker,2013-05-11 08:03:00,
2013-05-11 04:04:00,69.1,61.2,29.91,ENE,72,0.0,0.0,76,0.00,,,0.00,WeatherTracker,2013-05-11 08:04:00,
2013-05-11 04:05:00,69.0,61.1,29.91,ENE,72,0.0,0.0,76,0.00,,,0.00,WeatherTracker,2013-05-11 08:05:00,
2013-05-11 04:06:00,69.0,61.1,29.91,ENE,72,0.0,0.0,76,0.00,,,0.00,WeatherTracker,2013-05-11 08:06:00,
2013-05-11 04:08:00,69.0,61.1,29.91,ENE,73,0.0,0.0,76,0.00,,,0.00,WeatherTracker,2013-05-11 08:08:00,
2013-05-11 04:09:00,69.0,61.1,29.91,ENE,73,0.0,0.0,76,0.00,,,0.00,WeatherTracker,2013-05-11 08:09:00,
2013-05-11 04:10:00,69.0,61.1,29.91,ENE,73,0.0,0.0,76,0.00,,,0.00,WeatherTracker,2013-05-11 08:10:00,
2013-05-11 04:11:00,69.0,61.1,29.91,NNE,20,1.0,0.0,76,0.00,,,0.00,WeatherTracker,2013-05-11 08:11:00,
2013-05-11 04:14:00,68.9,61.0,29.91,NNE,19,1.0,0.0,76,0.00,,,0.00,WeatherTracker,2013-05-11 08:14:00,
2013-05-11 04:15:00,68.9,61.0,29.91,NNE,19,0.0,0.0,76,0.00,,,0.00,WeatherTracker,2013-05-11 08:15:00,
2013-05-11 04:18:00,68.8,60.9,29.91,NNE,19,0.0,0.0,76,0.00,,,0.00,WeatherTracker,2013-05-11 08:18:00,
2013-05-11 04:20:00,68.8,60.9,29.91,NNE,19,0.0,0.0,76,0.00,,,0.00,WeatherTracker,2013-05-11 08:20:00,
2013-05-11 04:23:00,68.7,60.8,29.91,NW,317,0.0,0.0,76,0.00,,,0.00,WeatherTracker,2013-05-11 08:23:00,
2013-05-11 04:25:00,68.7,60.8,29.91,NW,316,0.0,0.0,76,0.00,,,0.00,WeatherTracker,2013-05-11 08:25:00,
2013-05-11 04:27:00,68.7,60.8,29.91,NW,316,0.0,0.0,76,0.00,,,0.00,WeatherTracker,2013-05-11 08:27:00,
2013-05-11 04:28:00,68.6,60.7,29.91,NW,315,0.0,0.0,76,0.00,,,0.00,WeatherTracker,2013-05-11 08:28:00,
2013-05-11 04:30:00,68.6,60.7,29.91,NW,315,0.0,0.0,76,0.00,,,0.00,WeatherTracker,2013-05-11 08:30:00,
2013-05-11 04:31:00,68.6,60.7,29.91,NW,315,0.0,0.0,76,0.00,,,0.00,WeatherTracker,2013-05-11 08:31:00,
2013-05-11 04:32:00,68.6,60.7,29.91,NW,324,1.0,0.0,76,0.00,,,0.00,WeatherTracker,2013-05-11 08:32:00,
2013-05-11 04:34:00,68.6,60.7,29.91,NW,324,0.0,0.0,76,0.00,,,0.00,WeatherTracker,2013-05-11 08:34:00,
2013-05-11 04:36:00,68.6,60.7,29.91,ENE,60,2.0,0.0,76,0.00,,,0.00,WeatherTracker,2013-05-11 08:36:00,
2013-05-11 04:37:00,68.6,60.7,29.91,ENE,60,0.0,0.0,76,0.00,,,0.00,WeatherTracker,2013-05-11 08:37:00,
2013-05-11 04:39:00,68.6,60.7,29.91,WNW,295,1.0,0.0,76,0.00,,,0.00,WeatherTracker,2013-05-11 08:39:00,
2013-05-11 04:41:00,68.6,60.7,29.91,WNW,295,0.0,0.0,76,0.00,,,0.00,WeatherTracker,2013-05-11 08:41:00,
2013-05-11 04:42:00,68.6,60.7,29.91,WNW,295,0.0,0.0,76,0.00,,,0.00,WeatherTracker,2013-05-11 08:42:00,
2013-05-11 04:43:00,68.6,60.7,29.91,WNW,284,0.0,0.0,76,0.00,,,0.00,WeatherTracker,2013-05-11 08:43:00,
2013-05-11 04:44:00,68.6,60.7,29.91,SW,233,0.0,0.0,76,0.00,,,0.00,WeatherTracker,2013-05-11 08:44:00,
2013-05-11 04:46:00,68.6,60.7,29.90,SW,233,0.0,0.0,76,0.00,,,0.00,WeatherTracker,2013-05-11 08:46:00,
2013-05-11 04:47:00,68.6,60.7,29.90,SW,233,0.0,0.0,76,0.00,,,0.00,WeatherTracker,2013-05-11 08:47:00,
2013-05-11 04:48:00,68.6,60.7,29.90,SW,233,1.0,0.0,76,0.00,,,0.00,WeatherTracker,2013-05-11 08:48:00,
2013-05-11 04:50:00,68.5,60.6,29.90,SW,233,0.0,0.0,76,0.00,,,0.00,WeatherTracker,2013-05-11 08:50:00,
2013-05-11 04:52:00,68.5,60.6,29.90,SW,234,1.0,0.0,76,0.00,,,0.00,WeatherTracker,2013-05-11 08:52:00,
2013-05-11 04:53:00,68.5,60.6,29.90,SW,234,0.0,0.0,76,0.00,,,0.00,WeatherTracker,2013-05-11 08:53:00,
2013-05-11 04:55:00,68.5,60.6,29.90,SW,234,0.0,0.0,76,0.00,,,0.00,WeatherTracker,2013-05-11 08:55:00,
2013-05-11 04:57:00,68.4,60.5,29.90,SW,234,0.0,0.0,76,0.00,,,0.00,WeatherTracker,2013-05-11 08:57:00,
2013-05-11 04:58:00,68.4,60.5,29.91,SW,234,1.0,0.0,76,0.00,,,0.00,WeatherTracker,2013-05-11 08:58:00,
2013-05-11 04:59:00,68.4,60.5,29.91,SW,234,0.0,0.0,76,0.00,,,0.00,WeatherTracker,2013-05-11 08:59:00,
2013-05-11 05:01:00,68.4,60.5,29.91,SW,234,0.0,0.0,76,0.00,,,0.00,WeatherTracker,2013-05-11 09:01:00,
2013-05-11 05:02:00,68.4,60.5,29.91,SW,234,0.0,0.0,76,0.00,,,0.00,WeatherTracker,2013-05-11 09:02:00,
2013-05-11 05:03:00,68.4,60.5,29.91,SW,234,0.0,0.0,76,0.00,,,0.00,WeatherTracker,2013-05-11 09:03:00,
2013-05-11 05:04:00,68.3,60.4,29.91,North,9,0.0,0.0,76,0.00,,,0.00,WeatherTracker,2013-05-11 09:04:00,
2013-05-11 05:06:00,68.3,60.4,29.91,North,5,1.0,0.0,76,0.00,,,0.00,WeatherTracker,2013-05-11 09:06:00,
2013-05-11 05:07:00,68.3,60.4,29.91,NNE,32,0.0,0.0,76,0.00,,,0.00,WeatherTracker,2013-05-11 09:07:00,
2013-05-11 05:08:00,68.2,60.3,29.91,NNE,32,0.0,0.0,76,0.00,,,0.00,WeatherTracker,2013-05-11 09:08:00,
2013-05-11 05:09:00,68.3,60.4,29.91,NNE,32,1.0,0.0,76,0.00,,,0.00,WeatherTracker,2013-05-11 09:09:00,
2013-05-11 05:12:00,68.2,60.3,29.91,NE,34,0.0,0.0,76,0.00,,,0.00,WeatherTracker,2013-05-11 09:12:00,
2013-05-11 05:13:00,68.2,60.3,29.91,NE,34,1.0,0.0,76,0.00,,,0.00,WeatherTracker,2013-05-11 09:13:00,
2013-05-11 05:14:00,68.2,60.3,29.91,NE,34,0.0,0.0,76,0.00,,,0.00,WeatherTracker,2013-05-11 09:14:00,
2013-05-11 05:18:00,68.1,60.2,29.90,South,190,0.0,0.0,76,0.00,,,0.00,WeatherTracker,2013-05-11 09:18:00,
2013-05-11 05:19:00,68.1,60.2,29.90,South,190,0.0,0.0,76,0.00,,,0.00,WeatherTracker,2013-05-11 09:19:00,
2013-05-11 05:20:00,68.1,60.2,29.90,South,190,0.0,0.0,76,0.00,,,0.00,WeatherTracker,2013-05-11 09:20:00,
2013-05-11 05:24:00,68.0,60.1,29.90,WNW,292,0.0,0.0,76,0.00,,,0.00,WeatherTracker,2013-05-11 09:24:00,
2013-05-11 05:25:00,67.9,60.0,29.90,WNW,292,1.0,0.0,76,0.00,,,0.00,WeatherTracker,2013-05-11 09:25:00,
2013-05-11 05:29:00,67.9,60.0,29.90,NW,306,0.0,0.0,76,0.00,,,0.00,WeatherTracker,2013-05-11 09:29:00,
2013-05-11 05:30:00,67.9,60.0,29.90,NW,306,1.0,0.0,76,0.00,,,0.00,WeatherTracker,2013-05-11 09:30:00,
2013-05-11 05:31:00,67.9,59.7,29.91,WNW,302,1.0,0.0,75,0.00,,,0.00,WeatherTracker,2013-05-11 09:31:00,
2013-05-11 05:35:00,67.9,59.7,29.91,West,275,0.0,0.0,75,0.00,,,0.00,WeatherTracker,2013-05-11 09:35:00,
2013-05-11 05:37:00,67.9,59.7,29.90,West,275,0.0,0.0,75,0.00,,,0.00,WeatherTracker,2013-05-11 09:37:00,
2013-05-11 05:40:00,68.0,59.8,29.90,NE,46,2.0,0.0,75,0.00,,,0.00,WeatherTracker,2013-05-11 09:40:00,
2013-05-11 05:41:00,68.0,59.8,29.90,East,99,0.0,0.0,75,0.00,,,0.00,WeatherTracker,2013-05-11 09:41:00,
2013-05-11 05:43:00,67.9,59.7,29.90,East,99,0.0,0.0,75,0.00,,,0.00,WeatherTracker,2013-05-11 09:43:00,
2013-05-11 05:45:00,67.9,59.7,29.90,South,190,0.0,0.0,75,0.00,,,0.00,WeatherTracker,2013-05-11 09:45:00,
2013-05-11 05:46:00,67.9,59.7,29.91,South,190,0.0,0.0,75,0.00,,,0.00,WeatherTracker,2013-05-11 09:46:00,
2013-05-11 05:48:00,67.9,59.7,29.91,South,190,2.0,0.0,75,0.00,,,0.00,WeatherTracker,2013-05-11 09:48:00,
2013-05-11 05:49:00,67.9,59.7,29.91,South,190,0.0,0.0,75,0.00,,,0.00,WeatherTracker,2013-05-11 09:49:00,
2013-05-11 05:50:00,67.9,59.7,29.91,South,190,0.0,0.0,75,0.00,,,0.00,WeatherTracker,2013-05-11 09:50:00,
2013-05-11 05:52:00,67.9,59.7,29.91,WSW,254,1.0,0.0,75,0.00,,,0.00,WeatherTracker,2013-05-11 09:52:00,
2013-05-11 05:53:00,67.9,59.7,29.91,WSW,254,0.0,0.0,75,0.00,,,0.00,WeatherTracker,2013-05-11 09:53:00,
2013-05-11 05:54:00,67.9,59.3,29.90,WSW,254,0.0,0.0,74,0.00,,,0.00,WeatherTracker,2013-05-11 09:54:00,
2013-05-11 05:55:00,67.9,59.3,29.91,WSW,254,0.0,0.0,74,0.00,,,0.00,WeatherTracker,2013-05-11 09:55:00,
2013-05-11 05:56:00,67.9,59.3,29.91,WSW,254,0.0,0.0,74,0.00,,,0.00,WeatherTracker,2013-05-11 09:56:00,
2013-05-11 05:59:00,67.9,59.3,29.90,WSW,254,0.0,0.0,74,0.00,,,0.00,WeatherTracker,2013-05-11 09:59:00,
2013-05-11 06:00:00,67.9,59.3,29.91,SW,219,3.0,0.0,74,0.00,,,0.00,WeatherTracker,2013-05-11 10:00:00,
2013-05-11 06:01:00,67.9,59.3,29.91,SW,219,0.0,0.0,74,0.00,,,0.00,WeatherTracker,2013-05-11 10:01:00,
2013-05-11 06:04:00,67.8,59.2,29.91,SW,219,1.0,0.0,74,0.00,,,0.00,WeatherTracker,2013-05-11 10:04:00,
2013-05-11 06:05:00,67.8,59.2,29.91,SW,219,0.0,0.0,74,0.00,,,0.00,WeatherTracker,2013-05-11 10:05:00,
2013-05-11 06:06:00,67.7,59.1,29.91,East,86,0.0,0.0,74,0.00,,,0.00,WeatherTracker,2013-05-11 10:06:00,
2013-05-11 06:07:00,67.7,59.1,29.91,East,87,1.0,0.0,74,0.00,,,0.00,WeatherTracker,2013-05-11 10:07:00,
2013-05-11 06:10:00,67.7,59.1,29.91,WSW,252,1.0,0.0,74,0.00,,,0.00,WeatherTracker,2013-05-11 10:10:00,
2013-05-11 06:12:00,67.6,59.0,29.91,North,5,0.0,0.0,74,0.00,,,0.00,WeatherTracker,2013-05-11 10:12:00,
2013-05-11 06:13:00,67.6,59.0,29.91,WSW,249,0.0,0.0,74,0.00,,,0.00,WeatherTracker,2013-05-11 10:13:00,
2013-05-11 06:15:00,67.6,58.6,29.91,WSW,249,0.0,0.0,73,0.00,,,0.00,WeatherTracker,2013-05-11 10:15:00,
2013-05-11 06:16:00,67.6,59.0,29.91,WSW,249,0.0,0.0,74,0.00,,,0.00,WeatherTracker,2013-05-11 10:16:00,
2013-05-11 06:17:00,67.6,59.0,29.91,WSW,249,1.0,0.0,74,0.00,,,0.00,WeatherTracker,2013-05-11 10:17:00,
2013-05-11 06:18:00,67.5,58.9,29.91,WSW,249,1.0,0.0,74,0.00,,,0.00,WeatherTracker,2013-05-11 10:18:00,
2013-05-11 06:20:00,67.4,58.8,29.91,North,355,1.0,0.0,74,0.00,,,0.00,WeatherTracker,2013-05-11 10:20:00,
2013-05-11 06:21:00,67.4,58.8,29.91,North,355,1.0,0.0,74,0.00,,,0.00,WeatherTracker,2013-05-11 10:21:00,
2013-05-11 06:22:00,67.4,58.8,29.91,North,355,1.0,0.0,74,0.00,,,0.00,WeatherTracker,2013-05-11 10:22:00,
2013-05-11 06:23:00,67.4,58.8,29.91,North,355,0.0,0.0,74,0.00,,,0.00,WeatherTracker,2013-05-11 10:23:00,
2013-05-11 06:26:00,67.2,58.6,29.91,West,265,0.0,0.0,74,0.00,,,0.00,WeatherTracker,2013-05-11 10:26:00,
2013-05-11 06:27:00,67.2,58.6,29.91,West,265,1.0,0.0,74,0.00,,,0.00,WeatherTracker,2013-05-11 10:27:00,
2013-05-11 06:29:00,67.2,58.6,29.91,NW,310,1.0,0.0,74,0.00,,,0.00,WeatherTracker,2013-05-11 10:29:00,
2013-05-11 06:30:00,67.2,58.6,29.91,NW,310,0.0,0.0,74,0.00,,,0.00,WeatherTracker,2013-05-11 10:30:00,
2013-05-11 06:32:00,67.2,58.6,29.91,NW,310,0.0,0.0,74,0.00,,,0.00,WeatherTracker,2013-05-11 10:32:00,
2013-05-11 06:33:00,67.1,58.5,29.91,NW,310,1.0,0.0,74,0.00,,,0.00,WeatherTracker,2013-05-11 10:33:00,
2013-05-11 06:35:00,67.1,58.5,29.91,NW,310,0.0,0.0,74,0.00,,,0.00,WeatherTracker,2013-05-11 10:35:00,
2013-05-11 06:36:00,67.1,58.5,29.91,NW,310,0.0,0.0,74,0.00,,,0.00,WeatherTracker,2013-05-11 10:36:00,
2013-05-11 06:39:00,67.1,58.5,29.91,WNW,286,0.0,0.0,74,0.00,,,0.00,WeatherTracker,2013-05-11 10:39:00,
2013-05-11 06:40:00,67.0,58.4,29.91,WNW,286,0.0,0.0,74,0.00,,,0.00,WeatherTracker,2013-05-11 10:40:00,
2013-05-11 06:41:00,67.0,58.4,29.91,WNW,286,0.0,0.0,74,0.00,,,0.00,WeatherTracker,2013-05-11 10:41:00,
2013-05-11 06:42:00,67.0,58.4,29.91,WNW,286,0.0,0.0,74,0.00,,,0.00,WeatherTracker,2013-05-11 10:42:00,
2013-05-11 06:44:00,67.0,58.4,29.91,WNW,286,0.0,0.0,74,0.00,,,0.00,WeatherTracker,2013-05-11 10:44:00,
2013-05-11 06:45:00,66.9,58.7,29.91,WNW,286,0.0,0.0,75,0.00,,,0.00,WeatherTracker,2013-05-11 10:45:00,
2013-05-11 06:47:00,66.8,58.6,29.91,WNW,286,1.0,0.0,75,0.00,,,0.00,WeatherTracker,2013-05-11 10:47:00,
2013-05-11 06:49:00,66.8,58.6,29.91,South,187,0.0,0.0,75,0.00,,,0.00,WeatherTracker,2013-05-11 10:49:00,
2013-05-11 06:50:00,66.8,58.6,29.91,South,187,0.0,0.0,75,0.00,,,0.00,WeatherTracker,2013-05-11 10:50:00,
2013-05-11 06:51:00,66.8,58.6,29.91,South,187,1.0,0.0,75,0.00,,,0.00,WeatherTracker,2013-05-11 10:51:00,
2013-05-11 06:52:00,66.8,58.6,29.91,SW,221,2.0,0.0,75,0.00,,,0.00,WeatherTracker,2013-05-11 10:52:00,
2013-05-11 06:53:00,66.8,58.6,29.91,SW,221,0.0,0.0,75,0.00,,,0.00,WeatherTracker,2013-05-11 10:53:00,
2013-05-11 06:55:00,66.8,58.2,29.91,SE,145,0.0,0.0,74,0.00,,,0.00,WeatherTracker,2013-05-11 10:55:00,
2013-05-11 06:56:00,66.8,58.6,29.91,SSE,157,0.0,0.0,75,0.00,,,0.00,WeatherTracker,2013-05-11 10:56:00,
2013-05-11 06:58:00,66.9,58.3,29.91,SSE,157,1.0,0.0,74,0.00,,,0.00,WeatherTracker,2013-05-11 10:58:00,
2013-05-11 07:00:00,66.9,58.3,29.91,SSE,157,0.0,0.0,74,0.00,,,0.00,WeatherTracker,2013-05-11 11:00:00,
2013-05-11 07:02:00,66.9,58.3,29.91,SSE,157,1.0,0.0,74,0.00,,,0.00,WeatherTracker,2013-05-11 11:02:00,
2013-05-11 07:03:00,67.0,58.4,29.91,SSE,157,1.0,0.0,74,0.00,,,0.00,WeatherTracker,2013-05-11 11:03:00,
2013-05-11 07:04:00,67.0,58.4,29.91,SSE,157,0.0,0.0,74,0.00,,,0.00,WeatherTracker,2013-05-11 11:04:00,
2013-05-11 07:05:00,67.0,58.4,29.91,SSE,157,0.0,0.0,74,0.00,,,0.00,WeatherTracker,2013-05-11 11:05:00,
2013-05-11 07:07:00,67.0,58.8,29.91,SSE,157,0.0,0.0,75,0.00,,,0.00,WeatherTracker,2013-05-11 11:07:00,
2013-05-11 07:08:00,67.0,58.4,29.91,SSE,157,0.0,0.0,74,0.00,,,0.00,WeatherTracker,2013-05-11 11:08:00,
2013-05-11 07:09:00,67.0,58.8,29.91,SSE,157,1.0,0.0,75,0.00,,,0.00,WeatherTracker,2013-05-11 11:09:00,
2013-05-11 07:10:00,67.0,58.8,29.91,SSE,157,0.0,0.0,75,0.00,,,0.00,WeatherTracker,2013-05-11 11:10:00,
2013-05-11 07:11:00,66.9,58.7,29.91,SSE,157,0.0,0.0,75,0.00,,,0.00,WeatherTracker,2013-05-11 11:11:00,
2013-05-11 07:13:00,66.9,58.7,29.91,SSE,157,0.0,0.0,75,0.00,,,0.00,WeatherTracker,2013-05-11 11:13:00,
2013-05-11 07:14:00,66.9,58.7,29.91,SSE,157,1.0,0.0,75,0.00,,,0.00,WeatherTracker,2013-05-11 11:14:00,
2013-05-11 07:15:00,66.9,58.7,29.91,NNE,20,0.0,0.0,75,0.00,,,0.00,WeatherTracker,2013-05-11 11:15:00,
2013-05-11 07:18:00,66.8,58.6,29.91,NNE,20,1.0,0.0,75,0.00,,,0.00,WeatherTracker,2013-05-11 11:18:00,
2013-05-11 07:20:00,66.8,58.6,29.91,NNE,20,1.0,0.0,75,0.00,,,0.00,WeatherTracker,2013-05-11 11:20:00,
2013-05-11 07:21:00,66.8,58.6,29.91,NNE,20,0.0,0.0,75,0.00,,,0.00,WeatherTracker,2013-05-11 11:21:00,
2013-05-11 07:23:00,66.8,58.6,29.91,NNE,20,0.0,0.0,75,0.00,,,0.00,WeatherTracker,2013-05-11 11:23:00,
2013-05-11 07:24:00,66.8,58.6,29.91,NNE,20,0.0,0.0,75,0.00,,,0.00,WeatherTracker,2013-05-11 11:24:00,
2013-05-11 07:25:00,66.8,58.6,29.91,NW,319,0.0,0.0,75,0.00,,,0.00,WeatherTracker,2013-05-11 11:25:00,
2013-05-11 07:26:00,66.8,58.6,29.91,NW,319,0.0,0.0,75,0.00,,,0.00,WeatherTracker,2013-05-11 11:26:00,
2013-05-11 07:29:00,66.8,58.6,29.91,WSW,238,2.0,0.0,75,0.00,,,0.00,WeatherTracker,2013-05-11 11:29:00,
2013-05-11 07:30:00,66.8,58.6,29.91,WSW,238,0.0,0.0,75,0.00,,,0.00,WeatherTracker,2013-05-11 11:30:00,
2013-05-11 07:31:00,66.8,58.6,29.91,WSW,238,1.0,0.0,75,0.00,,,0.00,WeatherTracker,2013-05-11 11:31:00,
2013-05-11 07:32:00,66.8,58.6,29.91,WSW,238,0.0,0.0,75,0.00,,,0.00,WeatherTracker,2013-05-11 11:32:00,
2013-05-11 07:35:00,66.9,58.7,29.91,WSW,244,1.0,0.0,75,0.00,,,0.00,WeatherTracker,2013-05-11 11:35:00,
2013-05-11 07:36:00,66.9,58.7,29.91,WSW,245,0.0,0.0,75,0.00,,,0.00,WeatherTracker,2013-05-11 11:36:00,
2013-05-11 07:37:00,66.9,58.7,29.91,WNW,298,0.0,0.0,75,0.00,,,0.00,WeatherTracker,2013-05-11 11:37:00,
2013-05-11 07:41:00,66.9,58.7,29.91,WNW,288,3.0,0.0,75,0.00,,,0.00,WeatherTracker,2013-05-11 11:41:00,
2013-05-11 07:42:00,66.9,58.7,29.91,West,269,2.0,0.0,75,0.00,,,0.00,WeatherTracker,2013-05-11 11:42:00,
2013-05-11 07:43:00,66.9,58.7,29.91,West,269,0.0,0.0,75,0.00,,,0.00,WeatherTracker,2013-05-11 11:43:00,
2013-05-11 07:46:00,66.9,58.7,29.91,WSW,247,0.0,0.0,75,0.00,,,0.00,WeatherTracker,2013-05-11 11:46:00,
2013-05-11 07:47:00,66.9,58.7,29.91,WSW,247,0.0,0.0,75,0.00,,,0.00,WeatherTracker,2013-05-11 11:47:00,
2013-05-11 07:48:00,66.9,58.7,29.91,WSW,247,1.0,0.0,75,0.00,,,0.00,WeatherTracker,2013-05-11 11:48:00,
2013-05-11 07:51:00,67.0,58.8,29.91,WSW,247,0.0,0.0,75,0.00,,,0.00,WeatherTracker,2013-05-11 11:51:00,
2013-05-11 07:53:00,67.0,58.8,29.91,North,360,0.0,0.0,75,0.00,,,0.00,WeatherTracker,2013-05-11 11:53:00,
2013-05-11 07:57:00,67.0,58.8,29.91,SSE,148,0.0,0.0,75,0.00,,,0.00,WeatherTracker,2013-05-11 11:57:00,
2013-05-11 07:58:00,67.0,58.8,29.91,SSW,193,0.0,0.0,75,0.00,,,0.00,WeatherTracker,2013-05-11 11:58:00,
2013-05-11 07:59:00,67.0,58.8,29.91,SSW,193,0.0,0.0,75,0.00,,,0.00,WeatherTracker,2013-05-11 11:59:00,
2013-05-11 08:02:00,67.1,58.9,29.90,ESE,104,1.0,0.0,75,0.00,,,0.00,WeatherTracker,2013-05-11 12:02:00,
2013-05-11 08:03:00,67.2,59.4,29.90,ESE,104,0.0,0.0,76,0.00,,,0.00,WeatherTracker,2013-05-11 12:03:00,
2013-05-11 08:04:00,67.2,59.4,29.90,ESE,104,0.0,0.0,76,0.00,,,0.00,WeatherTracker,2013-05-11 12:04:00,
2013-05-11 08:05:00,67.2,59.4,29.90,ESE,104,0.0,0.0,76,0.00,,,0.00,WeatherTracker,2013-05-11 12:05:00,
2013-05-11 08:07:00,67.2,59.4,29.90,SE,140,1.0,0.0,76,0.00,,,0.00,WeatherTracker,2013-05-11 12:07:00,
2013-05-11 08:09:00,67.2,59.4,29.90,SE,140,0.0,0.0,76,0.00,,,0.00,WeatherTracker,2013-05-11 12:09:00,
2013-05-11 08:10:00,67.2,59.4,29.90,SSE,156,2.0,0.0,76,0.00,,,0.00,WeatherTracker,2013-05-11 12:10:00,
2013-05-11 08:13:00,67.8,59.6,29.90,SSE,157,0.0,0.0,75,0.00,,,0.00,WeatherTracker,2013-05-11 12:13:00,
2013-05-11 08:15:00,67.9,59.3,29.90,SSE,166,0.0,0.0,74,0.00,,,0.00,WeatherTracker,2013-05-11 12:15:00,
2013-05-11 08:16:00,68.1,59.5,29.90,SSE,166,0.0,0.0,74,0.00,,,0.00,WeatherTracker,2013-05-11 12:16:00,
2013-05-11 08:18:00,68.6,60.0,29.90,SSE,166,1.0,0.0,74,0.00,,,0.00,WeatherTracker,2013-05-11 12:18:00,
2013-05-11 08:20:00,69.0,60.4,29.90,WNW,294,0.0,0.0,74,0.00,,,0.00,WeatherTracker,2013-05-11 12:20:00,
2013-05-11 08:21:00,69.1,60.1,29.90,WNW,292,0.0,0.0,73,0.00,,,0.00,WeatherTracker,2013-05-11 12:21:00,
2013-05-11 08:25:00,69.2,60.2,29.90,South,187,1.0,0.0,73,0.00,,,0.00,WeatherTracker,2013-05-11 12:25:00,
2013-05-11 08:26:00,69.4,60.4,29.90,South,187,0.0,0.0,73,0.00,,,0.00,WeatherTracker,2013-05-11 12:26:00,
2013-05-11 08:27:00,69.4,60.4,29.90,South,187,1.0,0.0,73,0.00,,,0.00,WeatherTracker,2013-05-11 12:27:00,
2013-05-11 08:30:00,70.1,60.6,29.90,SW,219,1.0,0.0,72,0.00,,,0.00,WeatherTracker,2013-05-11 12:30:00,
2013-05-11 08:31:00,70.1,60.6,29.90,SW,219,1.0,0.0,72,0.00,,,0.00,WeatherTracker,2013-05-11 12:31:00,
2013-05-11 08:33:00,70.1,60.6,29.90,ENE,76,1.0,0.0,72,0.00,,,0.00,WeatherTracker,2013-05-11 12:33:00,
2013-05-11 08:36:00,70.1,60.6,29.90,SSE,154,1.0,0.0,72,0.00,,,0.00,WeatherTracker,2013-05-11 12:36:00,
2013-05-11 08:37:00,70.1,60.2,29.90,SSW,198,0.0,0.0,71,0.00,,,0.00,WeatherTracker,2013-05-11 12:37:00,
2013-05-11 08:38:00,70.3,60.8,29.90,SSW,198,1.0,0.0,72,0.00,,,0.00,WeatherTracker,2013-05-11 12:38:00,
2013-05-11 08:39:00,70.3,60.8,29.90,SSW,198,2.0,0.0,72,0.00,,,0.00,WeatherTracker,2013-05-11 12:39:00,
2013-05-11 08:42:00,70.1,60.6,29.90,SSW,198,0.0,0.0,72,0.00,,,0.00,WeatherTracker,2013-05-11 12:42:00,
2013-05-11 08:43:00,70.0,60.5,29.90,SW,234,2.0,0.0,72,0.00,,,0.00,WeatherTracker,2013-05-11 12:43:00,
2013-05-11 08:44:00,70.0,60.5,29.90,NW,320,1.0,0.0,72,0.00,,,0.00,WeatherTracker,2013-05-11 12:44:00,
2013-05-11 08:45:00,70.0,60.5,29.90,NW,320,0.0,0.0,72,0.00,,,0.00,WeatherTracker,2013-05-11 12:45:00,
2013-05-11 08:47:00,70.1,60.6,29.90,SW,234,1.0,0.0,72,0.00,,,0.00,WeatherTracker,2013-05-11 12:47:00,
2013-05-11 08:49:00,70.2,60.3,29.89,WSW,238,1.0,0.0,71,0.00,,,0.00,WeatherTracker,2013-05-11 12:49:00,
2013-05-11 08:50:00,70.3,60.4,29.90,West,263,2.0,0.0,71,0.00,,,0.00,WeatherTracker,2013-05-11 12:50:00,
2013-05-11 08:53:00,70.4,60.5,29.89,SSW,211,0.0,0.0,71,0.00,,,0.00,WeatherTracker,2013-05-11 12:53:00,
2013-05-11 08:54:00,70.5,60.6,29.89,SSW,210,1.0,0.0,71,0.00,,,0.00,WeatherTracker,2013-05-11 12:54:00,
2013-05-11 08:55:00,70.7,60.8,29.89,SSW,211,0.0,0.0,71,0.00,,,0.00,WeatherTracker,2013-05-11 12:55:00,
2013-05-11 08:58:00,71.4,61.1,29.89,NW,311,1.0,0.0,70,0.00,,,0.00,WeatherTracker,2013-05-11 12:58:00,
2013-05-11 08:59:00,71.5,61.2,29.89,West,279,2.0,0.0,70,0.00,,,0.00,WeatherTracker,2013-05-11 12:59:00,
2013-05-11 09:00:00,71.5,61.2,29.89,WNW,287,2.0,0.0,70,0.00,,,0.00,WeatherTracker,2013-05-11 13:00:00,
2013-05-11 09:04:00,71.6,60.9,29.89,SW,225,1.0,0.0,69,0.00,,,0.00,WeatherTracker,2013-05-11 13:04:00,
2013-05-11 09:05:00,71.6,60.9,29.89,WSW,238,2.0,0.0,69,0.00,,,0.00,WeatherTracker,2013-05-11 13:05:00,
2013-05-11 09:06:00,71.5,60.4,29.89,NNE,31,1.0,0.0,68,0.00,,,0.00,WeatherTracker,2013-05-11 13:06:00,
2013-05-11 09:09:00,71.5,60.8,29.89,SW,235,2.0,0.0,69,0.00,,,0.00,WeatherTracker,2013-05-11 13:09:00,
2013-05-11 09:10:00,71.6,60.9,29.89,SW,235,0.0,0.0,69,0.00,,,0.00,WeatherTracker,2013-05-11 13:10:00,
2013-05-11 09:11:00,71.7,60.6,29.89,WSW,242,3.0,0.0,68,0.00,,,0.00,WeatherTracker,2013-05-11 13:11:00,
2013-05-11 09:14:00,71.5,60.4,29.89,SW,225,2.0,0.0,68,0.00,,,0.00,WeatherTracker,2013-05-11 13:14:00,
2013-05-11 09:15:00,71.5,60.4,29.89,SW,225,0.0,0.0,68,0.00,,,0.00,WeatherTracker,2013-05-11 13:15:00,
2013-05-11 09:16:00,71.5,60.8,29.89,SW,225,2.0,0.0,69,0.00,,,0.00,WeatherTracker,2013-05-11 13:16:00,
2013-05-11 09:17:00,71.5,60.8,29.89,WSW,248,3.0,0.0,69,0.00,,,0.00,WeatherTracker,2013-05-11 13:17:00,
2013-05-11 09:19:00,71.6,60.5,29.89,WSW,244,1.0,0.0,68,0.00,,,0.00,WeatherTracker,2013-05-11 13:19:00,
2013-05-11 09:21:00,71.5,60.8,29.89,WSW,243,3.0,0.0,69,0.00,,,0.00,WeatherTracker,2013-05-11 13:21:00,
2013-05-11 09:22:00,71.4,60.7,29.89,SW,225,1.0,0.0,69,0.00,,,0.00,WeatherTracker,2013-05-11 13:22:00,
2013-05-11 09:23:00,71.5,60.4,29.89,SW,229,1.0,0.0,68,0.00,,,0.00,WeatherTracker,2013-05-11 13:23:00,
2013-05-11 09:24:00,71.6,60.5,29.89,SW,215,1.0,0.0,68,0.00,,,0.00,WeatherTracker,2013-05-11 13:24:00,
2013-05-11 09:26:00,71.7,60.6,29.89,West,261,2.0,0.0,68,0.00,,,0.00,WeatherTracker,2013-05-11 13:26:00,
2013-05-11 09:29:00,72.2,61.5,29.89,SW,236,3.0,0.0,69,0.00,,,0.00,WeatherTracker,2013-05-11 13:29:00,
2013-05-11 09:30:00,72.5,61.3,29.89,SW,226,1.0,0.0,68,0.00,,,0.00,WeatherTracker,2013-05-11 13:30:00,
2013-05-11 09:32:00,73.1,61.5,29.89,WNW,294,2.0,0.0,67,0.00,,,0.00,WeatherTracker,2013-05-11 13:32:00,
2013-05-11 09:34:00,73.0,61.0,29.88,SW,227,3.0,0.0,66,0.00,,,0.00,WeatherTracker,2013-05-11 13:34:00,
2013-05-11 09:35:00,73.0,61.0,29.89,SW,225,1.0,0.0,66,0.00,,,0.00,WeatherTracker,2013-05-11 13:35:00,
2013-05-11 09:37:00,72.9,60.4,29.89,SSW,199,4.0,0.0,65,0.00,,,0.00,WeatherTracker,2013-05-11 13:37:00,
2013-05-11 09:38:00,73.0,61.0,29.89,SSW,192,0.0,0.0,66,0.00,,,0.00,WeatherTracker,2013-05-11 13:38:00,
2013-05-11 09:39:00,73.7,61.2,29.89,SW,227,0.0,0.0,65,0.00,,,0.00,WeatherTracker,2013-05-11 13:39:00,
2013-05-11 09:40:00,73.9,61.4,29.89,North,355,0.0,0.0,65,0.00,,,0.00,WeatherTracker,2013-05-11 13:40:00,
2013-05-11 09:42:00,74.3,61.3,29.89,WSW,249,1.0,0.0,64,0.00,,,0.00,WeatherTracker,2013-05-11 13:42:00,
2013-05-11 09:44:00,74.9,61.9,29.89,WSW,241,5.0,0.0,64,0.00,,,0.00,WeatherTracker,2013-05-11 13:44:00,
2013-05-11 09:45:00,74.7,60.8,29.89,SW,227,4.0,0.0,62,0.00,,,0.00,WeatherTracker,2013-05-11 13:45:00,
2013-05-11 09:47:00,74.2,60.8,29.89,SW,234,3.0,0.0,63,0.00,,,0.00,WeatherTracker,2013-05-11 13:47:00,
2013-05-11 09:48:00,74.0,61.0,29.89,SW,235,2.0,0.0,64,0.00,,,0.00,WeatherTracker,2013-05-11 13:48:00,
2013-05-11 09:49:00,73.9,60.9,29.89,WSW,238,1.0,0.0,64,0.00,,,0.00,WeatherTracker,2013-05-11 13:49:00,
2013-05-11 09:50:00,73.9,61.4,29.89,NW,319,3.0,0.0,65,0.00,,,0.00,WeatherTracker,2013-05-11 13:50:00,
2013-05-11 09:51:00,73.8,61.3,29.89,WSW,242,2.0,0.0,65,0.00,,,0.00,WeatherTracker,2013-05-11 13:51:00,
2013-05-11 09:52:00,73.7,61.6,29.89,WSW,238,3.0,0.0,66,0.00,,,0.00,WeatherTracker,2013-05-11 13:52:00,
2013-05-11 09:54:00,73.5,61.0,29.89,WSW,258,1.0,0.0,65,0.00,,,0.00,WeatherTracker,2013-05-11 13:54:00,
2013-05-11 09:55:00,73.6,61.1,29.89,SW,216,2.0,0.0,65,0.00,,,0.00,WeatherTracker,2013-05-11 13:55:00,
2013-05-11 09:57:00,73.8,61.3,29.89,WNW,283,1.0,0.0,65,0.00,,,0.00,WeatherTracker,2013-05-11 13:57:00,
2013-05-11 09:59:00,74.0,61.0,29.89,SSW,194,0.0,0.0,64,0.00,,,0.00,WeatherTracker,2013-05-11 13:59:00,
2013-05-11 10:00:00,74.3,61.3,29.89,South,169,1.0,0.0,64,0.00,,,0.00,WeatherTracker,2013-05-11 14:00:00,
2013-05-11 10:01:00,74.4,61.4,29.89,SW,221,2.0,0.0,64,0.00,,,0.00,WeatherTracker,2013-05-11 14:01:00,
2013-05-11 10:03:00,74.2,61.2,29.89,SW,236,1.0,0.0,64,0.00,,,0.00,WeatherTracker,2013-05-11 14:03:00,
2013-05-11 10:04:00,74.0,61.0,29.89,SW,236,1.0,0.0,64,0.00,,,0.00,WeatherTracker,2013-05-11 14:04:00,
2013-05-11 10:05:00,74.0,61.0,29.89,SW,223,0.0,0.0,64,0.00,,,0.00,WeatherTracker,2013-05-11 14:05:00,
2013-05-11 10:06:00,74.0,61.5,29.89,SW,234,2.0,0.0,65,0.00,,,0.00,WeatherTracker,2013-05-11 14:06:00,
2013-05-11 10:08:00,73.8,61.3,29.89,West,276,0.0,0.0,65,0.00,,,0.00,WeatherTracker,2013-05-11 14:08:00,
2013-05-11 10:09:00,73.9,61.4,29.89,WSW,254,2.0,0.0,65,0.00,,,0.00,WeatherTracker,2013-05-11 14:09:00,
2013-05-11 10:10:00,73.9,61.4,29.89,SSW,212,1.0,0.0,65,0.00,,,0.00,WeatherTracker,2013-05-11 14:10:00,
2013-05-11 10:12:00,74.0,61.5,29.89,WSW,239,4.0,0.0,65,0.00,,,0.00,WeatherTracker,2013-05-11 14:12:00,
2013-05-11 10:13:00,73.7,60.7,29.89,SW,234,4.0,0.0,64,0.00,,,0.00,WeatherTracker,2013-05-11 14:13:00,
2013-05-11 10:14:00,73.7,60.7,29.89,South,190,1.0,0.0,64,0.00,,,0.00,WeatherTracker,2013-05-11 14:14:00,
2013-05-11 10:16:00,73.8,61.3,29.89,South,189,1.0,0.0,65,0.00,,,0.00,WeatherTracker,2013-05-11 14:16:00,
2013-05-11 10:17:00,74.0,61.5,29.89,West,259,5.0,0.0,65,0.00,,,0.00,WeatherTracker,2013-05-11 14:17:00,
2013-05-11 10:19:00,74.1,61.1,29.89,SW,217,4.0,0.0,64,0.00,,,0.00,WeatherTracker,2013-05-11 14:19:00,
2013-05-11 10:20:00,74.2,61.2,29.88,WSW,244,1.0,0.0,64,0.00,,,0.00,WeatherTracker,2013-05-11 14:20:00,
2013-05-11 10:21:00,74.4,61.4,29.88,South,171,2.0,0.0,64,0.00,,,0.00,WeatherTracker,2013-05-11 14:21:00,
2013-05-11 10:22:00,74.8,61.8,29.88,SW,229,2.0,0.0,64,0.00,,,0.00,WeatherTracker,2013-05-11 14:22:00,
2013-05-11 10:24:00,75.3,62.3,29.88,SW,219,2.0,0.0,64,0.00,,,0.00,WeatherTracker,2013-05-11 14:24:00,
2013-05-11 10:25:00,75.4,61.9,29.88,SSW,211,4.0,0.0,63,0.00,,,0.00,WeatherTracker,2013-05-11 14:25:00,
2013-05-11 10:26:00,75.3,61.8,29.88,West,272,4.0,0.0,63,0.00,,,0.00,WeatherTracker,2013-05-11 14:26:00,
2013-05-11 10:27:00,75.4,61.5,29.88,SW,225,1.0,0.0,62,0.00,,,0.00,WeatherTracker,2013-05-11 14:27:00,
2013-05-11 10:28:00,75.6,61.6,29.88,SW,220,3.0,0.0,62,0.00,,,0.00,WeatherTracker,2013-05-11 14:28:00,
2013-05-11 10:29:00,75.7,62.2,29.88,SSW,211,0.0,0.0,63,0.00,,,0.00,WeatherTracker,2013-05-11 14:29:00,
2013-05-11 10:31:00,76.0,62.5,29.88,SW,226,2.0,0.0,63,0.00,,,0.00,WeatherTracker,2013-05-11 14:31:00,
2013-05-11 10:32:00,76.2,62.2,29.88,SSE,155,3.0,0.0,62,0.00,,,0.00,WeatherTracker,2013-05-11 14:32:00,
2013-05-11 10:33:00,76.4,62.4,29.88,SW,221,3.0,0.0,62,0.00,,,0.00,WeatherTracker,2013-05-11 14:33:00,
2013-05-11 10:35:00,76.1,62.1,29.88,SW,232,1.0,0.0,62,0.00,,,0.00,WeatherTracker,2013-05-11 14:35:00,
2013-05-11 10:36:00,76.2,62.7,29.87,South,176,4.0,0.0,63,0.00,,,0.00,WeatherTracker,2013-05-11 14:36:00,
2013-05-11 10:37:00,76.2,62.2,29.88,WSW,244,2.0,0.0,62,0.00,,,0.00,WeatherTracker,2013-05-11 14:37:00,
2013-05-11 10:38:00,76.2,62.2,29.88,SW,223,1.0,0.0,62,0.00,,,0.00,WeatherTracker,2013-05-11 14:38:00,
2013-05-11 10:41:00,76.4,61.9,29.88,WSW,241,1.0,0.0,61,0.00,,,0.00,WeatherTracker,2013-05-11 14:41:00,
2013-05-11 10:42:00,76.3,62.3,29.87,NW,312,4.0,0.0,62,0.00,,,0.00,WeatherTracker,2013-05-11 14:42:00,
2013-05-11 10:43:00,76.1,61.2,29.87,SW,217,0.0,0.0,60,0.00,,,0.00,WeatherTracker,2013-05-11 14:43:00,
2013-05-11 10:46:00,76.6,62.1,29.87,SSW,195,1.0,0.0,61,0.00,,,0.00,WeatherTracker,2013-05-11 14:46:00,
2013-05-11 10:47:00,76.7,62.7,29.87,SW,222,3.0,0.0,62,0.00,,,0.00,WeatherTracker,2013-05-11 14:47:00,
2013-05-11 10:48:00,76.9,62.4,29.87,SSW,209,1.0,0.0,61,0.00,,,0.00,WeatherTracker,2013-05-11 14:48:00,
2013-05-11 10:52:00,77.3,61.8,29.87,SW,218,7.0,0.0,59,0.00,,,0.00,WeatherTracker,2013-05-11 14:52:00,
2013-05-11 10:53:00,77.2,61.7,29.87,SSW,196,2.0,0.0,59,0.00,,,0.00,WeatherTracker,2013-05-11 14:53:00,
2013-05-11 10:54:00,77.5,62.0,29.87,SW,231,2.0,0.0,59,0.00,,,0.00,WeatherTracker,2013-05-11 14:54:00,
2013-05-11 10:57:00,77.7,62.2,29.87,South,181,1.0,0.0,59,0.00,,,0.00,WeatherTracker,2013-05-11 14:57:00,
2013-05-11 10:58:00,77.8,62.3,29.86,South,182,1.0,0.0,59,0.00,,,0.00,WeatherTracker,2013-05-11 14:58:00,
2013-05-11 10:59:00,77.9,61.9,29.87,SSW,200,2.0,0.0,58,0.00,,,0.00,WeatherTracker,2013-05-11 14:59:00,
2013-05-11 11:01:00,78.1,62.1,29.86,WSW,238,3.0,0.0,58,0.00,,,0.00,WeatherTracker,2013-05-11 15:01:00,
2013-05-11 11:03:00,77.6,61.1,29.87,SW,234,1.0,0.0,57,0.00,,,0.00,WeatherTracker,2013-05-11 15:03:00,
2013-05-11 11:05:00,77.6,61.6,29.87,SSW,202,3.0,0.0,58,0.00,,,0.00,WeatherTracker,2013-05-11 15:05:00,
2013-05-11 11:06:00,77.6,61.6,29.87,South,173,1.0,0.0,58,0.00,,,0.00,WeatherTracker,2013-05-11 15:06:00,
2013-05-11 11:07:00,78.0,61.5,29.87,SW,225,4.0,0.0,57,0.00,,,0.00,WeatherTracker,2013-05-11 15:07:00,
2013-05-11 11:08:00,78.2,62.2,29.87,SSW,192,3.0,0.0,58,0.00,,,0.00,WeatherTracker,2013-05-11 15:08:00,
2013-05-11 11:10:00,78.4,61.9,29.87,SW,217,1.0,0.0,57,0.00,,,0.00,WeatherTracker,2013-05-11 15:10:00,
2013-05-11 11:11:00,78.5,62.0,29.87,SW,217,1.0,0.0,57,0.00,,,0.00,WeatherTracker,2013-05-11 15:11:00,
2013-05-11 11:14:00,78.7,62.2,29.87,WSW,242,2.0,0.0,57,0.00,,,0.00,WeatherTracker,2013-05-11 15:14:00,
2013-05-11 11:16:00,78.8,62.8,29.87,West,279,2.0,0.0,58,0.00,,,0.00,WeatherTracker,2013-05-11 15:16:00,
2013-05-11 11:17:00,78.8,62.3,29.87,SSW,196,1.0,0.0,57,0.00,,,0.00,WeatherTracker,2013-05-11 15:17:00,
2013-05-11 11:19:00,79.2,62.1,29.87,West,263,2.0,0.0,56,0.00,,,0.00,WeatherTracker,2013-05-11 15:19:00,
2013-05-11 11:21:00,79.1,62.5,29.87,SW,223,4.0,0.0,57,0.00,,,0.00,WeatherTracker,2013-05-11 15:21:00,
2013-05-11 11:22:00,79.3,62.2,29.87,SSW,200,2.0,0.0,56,0.00,,,0.00,WeatherTracker,2013-05-11 15:22:00,
2013-05-11 11:23:00,79.6,62.5,29.87,SW,225,3.0,0.0,56,0.00,,,0.00,WeatherTracker,2013-05-11 15:23:00,
2013-05-11 11:24:00,79.6,62.5,29.87,SW,226,3.0,0.0,56,0.00,,,0.00,WeatherTracker,2013-05-11 15:24:00,
2013-05-11 11:26:00,79.8,63.2,29.87,SW,228,3.0,0.0,57,0.00,,,0.00,WeatherTracker,2013-05-11 15:26:00,
2013-05-11 11:27:00,79.8,62.7,29.87,SW,223,6.0,0.0,56,0.00,,,0.00,WeatherTracker,2013-05-11 15:27:00,
2013-05-11 11:28:00,79.6,62.0,29.87,South,175,0.0,0.0,55,0.00,,,0.00,WeatherTracker,2013-05-11 15:28:00,
2013-05-11 11:30:00,79.3,62.2,29.87,NNE,30,1.0,0.0,56,0.00,,,0.00,WeatherTracker,2013-05-11 15:30:00,
2013-05-11 11:31:00,79.5,62.4,29.87,SW,234,3.0,0.0,56,0.00,,,0.00,WeatherTracker,2013-05-11 15:31:00,
2013-05-11 11:32:00,79.6,62.0,29.87,SSW,198,3.0,0.0,55,0.00,,,0.00,WeatherTracker,2013-05-11 15:32:00,
2013-05-11 11:33:00,79.7,62.1,29.87,SW,229,4.0,0.0,55,0.00,,,0.00,WeatherTracker,2013-05-11 15:33:00,
2013-05-11 11:34:00,79.7,62.1,29.87,SW,232,1.0,0.0,55,0.00,,,0.00,WeatherTracker,2013-05-11 15:34:00,
2013-05-11 11:35:00,79.9,62.3,29.87,SW,232,1.0,0.0,55,0.00,,,0.00,WeatherTracker,2013-05-11 15:35:00,
2013-05-11 11:36:00,80.1,62.5,29.87,West,277,2.0,0.0,55,0.00,,,0.00,WeatherTracker,2013-05-11 15:36:00,
2013-05-11 11:38:00,79.7,62.1,29.87,WNW,292,4.0,0.0,55,0.00,,,0.00,WeatherTracker,2013-05-11 15:38:00,
2013-05-11 11:39:00,79.3,62.2,29.87,SW,225,2.0,0.0,56,0.00,,,0.00,WeatherTracker,2013-05-11 15:39:00,
2013-05-11 11:40:00,79.4,62.3,29.87,NW,316,5.0,0.0,56,0.00,,,0.00,WeatherTracker,2013-05-11 15:40:00,
2013-05-11 11:41:00,79.2,61.6,29.86,South,169,1.0,0.0,55,0.00,,,0.00,WeatherTracker,2013-05-11 15:41:00,
2013-05-11 11:43:00,79.6,62.5,29.86,SW,223,1.0,0.0,56,0.00,,,0.00,WeatherTracker,2013-05-11 15:43:00,
2013-05-11 11:45:00,80.4,62.7,29.86,NW,317,2.0,0.0,55,0.00,,,0.00,WeatherTracker,2013-05-11 15:45:00,
2013-05-11 11:47:00,80.2,61.5,29.87,South,180,2.0,0.0,53,0.00,,,0.00,WeatherTracker,2013-05-11 15:47:00,
2013-05-11 11:49:00,79.8,61.7,29.87,East,80,6.0,0.0,54,0.00,,,0.00,WeatherTracker,2013-05-11 15:49:00,
2013-05-11 11:50:00,79.7,62.1,29.87,SW,216,2.0,0.0,55,0.00,,,0.00,WeatherTracker,2013-05-11 15:50:00,
2013-05-11 11:51:00,79.6,62.0,29.87,SW,217,3.0,0.0,55,0.00,,,0.00,WeatherTracker,2013-05-11 15:51:00,
2013-05-11 11:52:00,79.9,62.3,29.87,West,277,2.0,0.0,55,0.00,,,0.00,WeatherTracker,2013-05-11 15:52:00,
2013-05-11 11:53:00,80.2,62.5,29.87,WSW,239,2.0,0.0,55,0.00,,,0.00,WeatherTracker,2013-05-11 15:53:00,
2013-05-11 11:55:00,80.4,62.7,29.87,SSW,206,3.0,0.0,55,0.00,,,0.00,WeatherTracker,2013-05-11 15:55:00,
2013-05-11 11:56:00,80.5,62.8,29.87,West,266,2.0,0.0,55,0.00,,,0.00,WeatherTracker,2013-05-11 15:56:00,
2013-05-11 11:58:00,80.0,62.4,29.88,West,265,3.0,0.0,55,0.00,,,0.00,WeatherTracker,2013-05-11 15:58:00,
2013-05-11 11:59:00,79.5,61.4,29.87,SW,227,4.0,0.0,54,0.00,,,0.00,WeatherTracker,2013-05-11 15:59:00,
2013-05-11 12:00:00,79.2,61.1,29.87,SW,229,2.0,0.0,54,0.00,,,0.00,WeatherTracker,2013-05-11 16:00:00,
2013-05-11 12:02:00,79.0,61.9,29.87,SW,232,2.0,0.0,56,0.00,,,0.00,WeatherTracker,2013-05-11 16:02:00,
2013-05-11 12:03:00,79.1,62.0,29.87,SW,236,3.0,0.0,56,0.00,,,0.00,WeatherTracker,2013-05-11 16:03:00,
2013-05-11 12:04:00,79.3,61.7,29.87,SW,226,0.0,0.0,55,0.00,,,0.00,WeatherTracker,2013-05-11 16:04:00,
2013-05-11 12:05:00,79.8,62.2,29.87,NNE,18,2.0,0.0,55,0.00,,,0.00,WeatherTracker,2013-05-11 16:05:00,
2013-05-11 12:08:00,81.1,62.3,29.87,NNW,345,2.0,0.0,53,0.00,,,0.00,WeatherTracker,2013-05-11 16:08:00,
2013-05-11 12:09:00,80.9,62.7,29.87,SW,234,7.0,0.0,54,0.00,,,0.00,WeatherTracker,2013-05-11 16:09:00,
2013-05-11 12:10:00,80.7,61.4,29.87,SW,228,4.0,0.0,52,0.00,,,0.00,WeatherTracker,2013-05-11 16:10:00,
2013-05-11 12:13:00,79.3,62.2,29.87,WNW,290,11.0,0.0,56,0.00,,,0.00,WeatherTracker,2013-05-11 16:13:00,
2013-05-11 12:14:00,79.3,62.2,29.87,NW,309,6.0,0.0,56,0.00,,,0.00,WeatherTracker,2013-05-11 16:14:00,
2013-05-11 12:15:00,78.8,61.2,29.87,WSW,247,2.0,0.0,55,0.00,,,0.00,WeatherTracker,2013-05-11 16:15:00,
2013-05-11 12:19:00,79.3,62.2,29.87,SW,236,2.0,0.0,56,0.00,,,0.00,WeatherTracker,2013-05-11 16:19:00,
2013-05-11 12:20:00,79.5,62.4,29.87,WSW,254,3.0,0.0,56,0.00,,,0.00,WeatherTracker,2013-05-11 16:20:00,
2013-05-11 12:21:00,79.4,62.3,29.87,West,260,3.0,0.0,56,0.00,,,0.00,WeatherTracker,2013-05-11 16:21:00,
2013-05-11 12:24:00,78.8,61.8,29.87,West,263,6.0,0.0,56,0.00,,,0.00,WeatherTracker,2013-05-11 16:24:00,
2013-05-11 12:25:00,78.5,61.0,29.87,WSW,238,2.0,0.0,55,0.00,,,0.00,WeatherTracker,2013-05-11 16:25:00,
2013-05-11 12:26:00,78.3,60.8,29.87,WSW,243,4.0,0.0,55,0.00,,,0.00,WeatherTracker,2013-05-11 16:26:00,
2013-05-11 12:29:00,77.9,60.9,29.87,West,261,2.0,0.0,56,0.00,,,0.00,WeatherTracker,2013-05-11 16:29:00,
2013-05-11 12:30:00,77.9,61.4,29.86,WNW,293,5.0,0.0,57,0.00,,,0.00,WeatherTracker,2013-05-11 16:30:00,
2013-05-11 12:31:00,78.0,61.5,29.86,SW,215,4.0,0.0,57,0.00,,,0.00,WeatherTracker,2013-05-11 16:31:00,
2013-05-11 12:32:00,78.4,61.9,29.86,SW,219,1.0,0.0,57,0.00,,,0.00,WeatherTracker,2013-05-11 16:32:00,
2013-05-11 12:34:00,78.9,61.8,29.86,WSW,239,2.0,0.0,56,0.00,,,0.00,WeatherTracker,2013-05-11 16:34:00,
2013-05-11 12:35:00,79.0,61.9,29.86,SW,216,4.0,0.0,56,0.00,,,0.00,WeatherTracker,2013-05-11 16:35:00,
2013-05-11 12:37:00,79.0,60.9,29.86,SW,232,2.0,0.0,54,0.00,,,0.00,WeatherTracker,2013-05-11 16:37:00,
2013-05-11 12:39:00,79.3,61.7,29.86,WSW,237,2.0,0.0,55,0.00,,,0.00,WeatherTracker,2013-05-11 16:39:00,
2013-05-11 12:41:00,79.8,62.2,29.86,SW,236,1.0,0.0,55,0.00,,,0.00,WeatherTracker,2013-05-11 16:41:00,
2013-05-11 12:42:00,80.0,61.8,29.86,West,265,3.0,0.0,54,0.00,,,0.00,WeatherTracker,2013-05-11 16:42:00,
2013-05-11 12:45:00,79.6,60.9,29.86,WNW,300,5.0,0.0,53,0.00,,,0.00,WeatherTracker,2013-05-11 16:45:00,
2013-05-11 12:46:00,79.4,60.2,29.86,SW,229,6.0,0.0,52,0.00,,,0.00,WeatherTracker,2013-05-11 16:46:00,
2013-05-11 12:47:00,79.4,60.8,29.86,SW,223,6.0,0.0,53,0.00,,,0.00,WeatherTracker,2013-05-11 16:47:00,
2013-05-11 12:48:00,79.6,61.5,29.86,South,180,2.0,0.0,54,0.00,,,0.00,WeatherTracker,2013-05-11 16:48:00,
2013-05-11 12:50:00,79.6,60.4,29.86,WSW,237,2.0,0.0,52,0.00,,,0.00,WeatherTracker,2013-05-11 16:50:00,
2013-05-11 12:51:00,79.7,60.5,29.86,SW,231,2.0,0.0,52,0.00,,,0.00,WeatherTracker,2013-05-11 16:51:00,
2013-05-11 12:52:00,79.6,60.4,29.86,West,261,4.0,0.0,52,0.00,,,0.00,WeatherTracker,2013-05-11 16:52:00,
2013-05-11 12:53:00,79.5,60.3,29.86,WSW,237,9.0,0.0,52,0.00,,,0.00,WeatherTracker,2013-05-11 16:53:00,
2013-05-11 12:55:00,79.1,59.9,29.86,WSW,240,4.0,0.0,52,0.00,,,0.00,WeatherTracker,2013-05-11 16:55:00,
2013-05-11 12:57:00,78.9,60.3,29.86,West,262,3.0,0.0,53,0.00,,,0.00,WeatherTracker,2013-05-11 16:57:00,
2013-05-11 12:58:00,78.9,59.8,29.86,WSW,237,3.0,0.0,52,0.00,,,0.00,WeatherTracker,2013-05-11 16:58:00,
2013-05-11 12:59:00,79.0,60.4,29.86,SW,231,5.0,0.0,53,0.00,,,0.00,WeatherTracker,2013-05-11 16:59:00,
2013-05-11 13:01:00,79.0,60.4,29.86,West,266,5.0,0.0,53,0.00,,,0.00,WeatherTracker,2013-05-11 17:01:00,
2013-05-11 13:03:00,78.8,60.7,29.86,WSW,240,0.0,0.0,54,0.00,,,0.00,WeatherTracker,2013-05-11 17:03:00,
2013-05-11 13:04:00,79.0,60.9,29.86,WNW,296,2.0,0.0,54,0.00,,,0.00,WeatherTracker,2013-05-11 17:04:00,
2013-05-11 13:05:00,79.2,61.6,29.86,WNW,295,3.0,0.0,55,0.00,,,0.00,WeatherTracker,2013-05-11 17:05:00,
2013-05-11 13:06:00,79.1,61.5,29.86,WNW,288,1.0,0.0,55,0.00,,,0.00,WeatherTracker,2013-05-11 17:06:00,
2013-05-11 13:08:00,79.2,62.1,29.86,WNW,295,4.0,0.0,56,0.00,,,0.00,WeatherTracker,2013-05-11 17:08:00,
2013-05-11 13:09:00,79.1,61.5,29.86,SW,221,5.0,0.0,55,0.00,,,0.00,WeatherTracker,2013-05-11 17:09:00,
2013-05-11 13:10:00,79.2,61.1,29.85,SW,225,5.0,0.0,54,0.00,,,0.00,WeatherTracker,2013-05-11 17:10:00,
2013-05-11 13:11:00,79.3,60.7,29.85,SSW,198,5.0,0.0,53,0.00,,,0.00,WeatherTracker,2013-05-11 17:11:00,
2013-05-11 13:13:00,79.4,60.8,29.85,SW,223,3.0,0.0,53,0.00,,,0.00,WeatherTracker,2013-05-11 17:13:00,
2013-05-11 13:14:00,79.4,60.8,29.85,SW,232,0.0,0.0,53,0.00,,,0.00,WeatherTracker,2013-05-11 17:14:00,
2013-05-11 13:16:00,79.9,61.2,29.85,WNW,287,1.0,0.0,53,0.00,,,0.00,WeatherTracker,2013-05-11 17:16:00,
2013-05-11 13:18:00,80.3,62.1,29.85,West,278,1.0,0.0,54,0.00,,,0.00,WeatherTracker,2013-05-11 17:18:00,
2013-05-11 13:19:00,80.3,62.1,29.85,West,269,4.0,0.0,54,0.00,,,0.00,WeatherTracker,2013-05-11 17:19:00,
2013-05-11 13:22:00,80.8,62.0,29.85,SW,231,3.0,0.0,53,0.00,,,0.00,WeatherTracker,2013-05-11 17:22:00,
2013-05-11 13:23:00,80.6,61.9,29.85,NNW,331,3.0,0.0,53,0.00,,,0.00,WeatherTracker,2013-05-11 17:23:00,
2013-05-11 13:24:00,80.5,61.8,29.85,WNW,288,2.0,0.0,53,0.00,,,0.00,WeatherTracker,2013-05-11 17:24:00,
2013-05-11 13:25:00,80.3,61.0,29.85,WSW,246,2.0,0.0,52,0.00,,,0.00,WeatherTracker,2013-05-11 17:25:00,
2013-05-11 13:27:00,79.9,61.2,29.85,WSW,237,2.0,0.0,53,0.00,,,0.00,WeatherTracker,2013-05-11 17:27:00,
2013-05-11 13:28:00,79.5,61.4,29.85,SW,227,3.0,0.0,54,0.00,,,0.00,WeatherTracker,2013-05-11 17:28:00,
2013-05-11 13:29:00,79.4,61.3,29.85,WNW,298,6.0,0.0,54,0.00,,,0.00,WeatherTracker,2013-05-11 17:29:00,
2013-05-11 13:30:00,79.2,61.1,29.84,West,259,2.0,0.0,54,0.00,,,0.00,WeatherTracker,2013-05-11 17:30:00,
2013-05-11 13:32:00,79.3,62.2,29.84,SW,232,4.0,0.0,56,0.00,,,0.00,WeatherTracker,2013-05-11 17:32:00,
2013-05-11 13:34:00,79.8,61.7,29.84,NW,325,6.0,0.0,54,0.00,,,0.00,WeatherTracker,2013-05-11 17:34:00,
2013-05-11 13:35:00,79.8,61.7,29.84,West,273,2.0,0.0,54,0.00,,,0.00,WeatherTracker,2013-05-11 17:35:00,
2013-05-11 13:37:00,79.6,62.0,29.84,WSW,238,3.0,0.0,55,0.00,,,0.00,WeatherTracker,2013-05-11 17:37:00,
2013-05-11 13:39:00,79.8,62.2,29.84,WSW,250,2.0,0.0,55,0.00,,,0.00,WeatherTracker,2013-05-11 17:39:00,
2013-05-11 13:40:00,79.8,62.2,29.84,WSW,247,3.0,0.0,55,0.00,,,0.00,WeatherTracker,2013-05-11 17:40:00,
2013-05-11 13:43:00,79.6,60.9,29.84,WSW,238,0.0,0.0,53,0.00,,,0.00,WeatherTracker,2013-05-11 17:43:00,
2013-05-11 13:45:00,80.2,62.0,29.84,WNW,291,4.0,0.0,54,0.00,,,0.00,WeatherTracker,2013-05-11 17:45:00,
2013-05-11 13:46:00,80.2,61.5,29.84,West,279,2.0,0.0,53,0.00,,,0.00,WeatherTracker,2013-05-11 17:46:00,
2013-05-11 13:48:00,79.9,61.7,29.84,West,267,2.0,0.0,54,0.00,,,0.00,WeatherTracker,2013-05-11 17:48:00,
2013-05-11 13:50:00,80.2,62.5,29.83,SW,236,3.0,0.0,55,0.00,,,0.00,WeatherTracker,2013-05-11 17:50:00,
2013-05-11 13:51:00,80.3,61.6,29.83,WNW,294,3.0,0.0,53,0.00,,,0.00,WeatherTracker,2013-05-11 17:51:00,
2013-05-11 13:52:00,80.4,62.2,29.83,WNW,294,3.0,0.0,54,0.00,,,0.00,WeatherTracker,2013-05-11 17:52:00,
2013-05-11 13:53:00,80.3,61.0,29.83,NW,306,4.0,0.0,52,0.00,,,0.00,WeatherTracker,2013-05-11 17:53:00,
2013-05-11 13:55:00,80.1,61.4,29.83,WSW,244,3.0,0.0,53,0.00,,,0.00,WeatherTracker,2013-05-11 17:55:00,
2013-05-11 13:57:00,80.3,62.1,29.83,WNW,293,1.0,0.0,54,0.00,,,0.00,WeatherTracker,2013-05-11 17:57:00,
2013-05-11 13:59:00,80.7,61.4,29.83,West,259,1.0,0.0,52,0.00,,,0.00,WeatherTracker,2013-05-11 17:59:00,
2013-05-11 14:00:00,80.6,61.3,29.83,SSW,212,2.0,0.0,52,0.00,,,0.00,WeatherTracker,2013-05-11 18:00:00,
2013-05-11 14:02:00,81.1,61.2,29.83,WNW,286,2.0,0.0,51,0.00,,,0.00,WeatherTracker,2013-05-11 18:02:00,
2013-05-11 14:04:00,81.5,61.0,29.83,NNW,327,1.0,0.0,50,0.00,,,0.00,WeatherTracker,2013-05-11 18:04:00,
2013-05-11 14:05:00,81.6,61.1,29.83,SW,217,3.0,0.0,50,0.00,,,0.00,WeatherTracker,2013-05-11 18:05:00,
2013-05-11 14:06:00,81.7,61.2,29.83,WNW,282,1.0,0.0,50,0.00,,,0.00,WeatherTracker,2013-05-11 18:06:00,
2013-05-11 14:07:00,81.6,61.7,29.83,NW,315,1.0,0.0,51,0.00,,,0.00,WeatherTracker,2013-05-11 18:07:00,
2013-05-11 14:09:00,81.5,62.2,29.83,WSW,243,3.0,0.0,52,0.00,,,0.00,WeatherTracker,2013-05-11 18:09:00,
2013-05-11 14:10:00,81.5,62.2,29.83,WSW,253,4.0,0.0,52,0.00,,,0.00,WeatherTracker,2013-05-11 18:10:00,
2013-05-11 14:11:00,81.1,60.7,29.83,NW,316,8.0,0.0,50,0.00,,,0.00,WeatherTracker,2013-05-11 18:11:00,
2013-05-11 14:12:00,80.8,60.4,29.83,WSW,245,1.0,0.0,50,0.00,,,0.00,WeatherTracker,2013-05-11 18:12:00,
2013-05-11 14:13:00,80.8,61.0,29.83,NW,321,1.0,0.0,51,0.00,,,0.00,WeatherTracker,2013-05-11 18:13:00,
2013-05-11 14:14:00,80.8,60.4,29.83,WSW,256,3.0,0.0,50,0.00,,,0.00,WeatherTracker,2013-05-11 18:14:00,
2013-05-11 14:15:00,80.7,61.4,29.83,SW,226,4.0,0.0,52,0.00,,,0.00,WeatherTracker,2013-05-11 18:15:00,
2013-05-11 14:16:00,80.7,61.4,29.83,WSW,250,2.0,0.0,52,0.00,,,0.00,WeatherTracker,2013-05-11 18:16:00,
2013-05-11 14:18:00,80.5,60.7,29.83,NNW,332,9.0,0.0,51,0.00,,,0.00,WeatherTracker,2013-05-11 18:18:00,
2013-05-11 14:19:00,80.2,59.8,29.83,WNW,290,3.0,0.0,50,0.00,,,0.00,WeatherTracker,2013-05-11 18:19:00,
2013-05-11 14:20:00,80.0,60.8,29.83,NW,311,3.0,0.0,52,0.00,,,0.00,WeatherTracker,2013-05-11 18:20:00,
2013-05-11 14:21:00,79.8,61.1,29.83,SW,227,4.0,0.0,53,0.00,,,0.00,WeatherTracker,2013-05-11 18:21:00,
2013-05-11 14:23:00,79.8,61.1,29.83,South,180,3.0,0.0,53,0.00,,,0.00,WeatherTracker,2013-05-11 18:23:00,
2013-05-11 14:24:00,79.7,60.5,29.83,West,273,3.0,0.0,52,0.00,,,0.00,WeatherTracker,2013-05-11 18:24:00,
2013-05-11 14:25:00,79.8,60.0,29.83,West,269,0.0,0.0,51,0.00,,,0.00,WeatherTracker,2013-05-11 18:25:00,
2013-05-11 14:28:00,79.7,59.9,29.83,SW,218,1.0,0.0,51,0.00,,,0.00,WeatherTracker,2013-05-11 18:28:00,
2013-05-11 14:29:00,79.8,60.6,29.83,SW,218,0.0,0.0,52,0.00,,,0.00,WeatherTracker,2013-05-11 18:29:00,
2013-05-11 14:30:00,79.9,60.7,29.83,SW,218,1.0,0.0,52,0.00,,,0.00,WeatherTracker,2013-05-11 18:30:00,
2013-05-11 14:31:00,80.2,61.0,29.82,WSW,247,2.0,0.0,52,0.00,,,0.00,WeatherTracker,2013-05-11 18:31:00,
2013-05-11 14:33:00,80.5,60.7,29.83,WSW,248,2.0,0.0,51,0.00,,,0.00,WeatherTracker,2013-05-11 18:33:00,
2013-05-11 14:35:00,80.8,61.5,29.83,West,279,2.0,0.0,52,0.00,,,0.00,WeatherTracker,2013-05-11 18:35:00,
2013-05-11 14:37:00,81.6,61.1,29.82,West,275,3.0,0.0,50,0.00,,,0.00,WeatherTracker,2013-05-11 18:37:00,
2013-05-11 14:38:00,81.5,61.0,29.82,WSW,255,1.0,0.0,50,0.00,,,0.00,WeatherTracker,2013-05-11 18:38:00,
2013-05-11 14:40:00,81.2,60.8,29.82,SSW,196,1.0,0.0,50,0.00,,,0.00,WeatherTracker,2013-05-11 18:40:00,
2013-05-11 14:41:00,81.1,60.7,29.82,SSW,206,2.0,0.0,50,0.00,,,0.00,WeatherTracker,2013-05-11 18:41:00,
2013-05-11 14:43:00,80.9,61.6,29.82,WSW,241,1.0,0.0,52,0.00,,,0.00,WeatherTracker,2013-05-11 18:43:00,
2013-05-11 14:46:00,80.5,61.2,29.82,SW,219,3.0,0.0,52,0.00,,,0.00,WeatherTracker,2013-05-11 18:46:00,
2013-05-11 14:47:00,80.2,61.5,29.82,SW,233,3.0,0.0,53,0.00,,,0.00,WeatherTracker,2013-05-11 18:47:00,
2013-05-11 14:48:00,79.7,61.6,29.82,SSW,209,1.0,0.0,54,0.00,,,0.00,WeatherTracker,2013-05-11 18:48:00,
2013-05-11 14:50:00,79.6,62.0,29.82,SW,222,2.0,0.0,55,0.00,,,0.00,WeatherTracker,2013-05-11 18:50:00,
2013-05-11 14:51:00,79.2,62.1,29.82,SSW,208,2.0,0.0,56,0.00,,,0.00,WeatherTracker,2013-05-11 18:51:00,
2013-05-11 14:52:00,79.0,62.9,29.82,NW,321,2.0,0.0,58,0.00,,,0.00,WeatherTracker,2013-05-11 18:52:00,
2013-05-11 14:54:00,78.4,62.4,29.82,West,265,2.0,0.0,58,0.00,,,0.00,WeatherTracker,2013-05-11 18:54:00,
2013-05-11 14:55:00,77.9,65.2,29.82,WSW,245,3.0,0.0,65,0.00,,,0.00,WeatherTracker,2013-05-11 18:55:00,
2013-05-11 14:57:00,77.3,63.2,29.82,WSW,238,3.0,0.0,62,0.00,,,0.00,WeatherTracker,2013-05-11 18:57:00,
2013-05-11 14:58:00,77.1,63.1,29.83,WSW,238,0.0,0.0,62,0.00,,,0.00,WeatherTracker,2013-05-11 18:58:00,
2013-05-11 14:59:00,76.9,63.8,29.83,WSW,239,2.0,0.0,64,0.00,,,0.00,WeatherTracker,2013-05-11 18:59:00,
2013-05-11 15:00:00,76.5,64.3,29.83,WNW,303,4.0,0.0,66,0.00,,,0.00,WeatherTracker,2013-05-11 19:00:00,
2013-05-11 15:02:00,76.1,64.3,29.82,West,277,3.0,0.0,67,0.00,,,0.00,WeatherTracker,2013-05-11 19:02:00,
2013-05-11 15:04:00,75.8,63.2,29.82,WNW,303,5.0,0.0,65,0.00,,,0.00,WeatherTracker,2013-05-11 19:04:00,
2013-05-11 15:05:00,75.7,63.5,29.82,WNW,300,1.0,0.0,66,0.00,,,0.00,WeatherTracker,2013-05-11 19:05:00,
2013-05-11 15:08:00,75.6,63.4,29.82,WNW,298,0.0,0.0,66,0.00,,,0.00,WeatherTracker,2013-05-11 19:08:00,
2013-05-11 15:10:00,75.6,63.9,29.82,West,271,3.0,0.0,67,0.00,,,0.00,WeatherTracker,2013-05-11 19:10:00,
2013-05-11 15:11:00,75.6,63.9,29.82,West,271,2.0,0.0,67,0.00,,,0.00,WeatherTracker,2013-05-11 19:11:00,
2013-05-11 15:14:00,75.4,64.5,29.83,WNW,283,1.0,0.0,69,0.00,,,0.00,WeatherTracker,2013-05-11 19:14:00,
2013-05-11 15:15:00,75.0,64.5,29.83,SSW,207,1.0,0.0,70,0.02,,,0.02,WeatherTracker,2013-05-11 19:15:00,
2013-05-11 15:16:00,74.1,65.3,29.83,SW,216,3.0,0.0,74,0.04,,,0.04,WeatherTracker,2013-05-11 19:16:00,
2013-05-11 15:17:00,73.6,64.8,29.83,SW,219,1.0,0.0,74,0.04,,,0.04,WeatherTracker,2013-05-11 19:17:00,
2013-05-11 15:19:00,71.8,65.3,29.83,SW,219,0.0,0.0,80,0.05,,,0.05,WeatherTracker,2013-05-11 19:19:00,
2013-05-11 15:20:00,71.1,64.6,29.83,SW,219,0.0,0.0,80,0.05,,,0.05,WeatherTracker,2013-05-11 19:20:00,
2013-05-11 15:21:00,70.7,65.3,29.83,SW,219,0.0,0.0,83,0.05,,,0.05,WeatherTracker,2013-05-11 19:21:00,
2013-05-11 15:22:00,70.6,65.2,29.83,SW,219,1.0,0.0,83,0.05,,,0.05,WeatherTracker,2013-05-11 19:22:00,
2013-05-11 15:24:00,70.2,64.4,29.83,SW,219,0.0,0.0,82,0.05,,,0.05,WeatherTracker,2013-05-11 19:24:00,
2013-05-11 15:26:00,70.2,65.5,29.82,SW,219,0.0,0.0,85,0.05,,,0.05,WeatherTracker,2013-05-11 19:26:00,
2013-05-11 15:27:00,70.0,64.6,29.82,SW,219,0.0,0.0,83,0.05,,,0.05,WeatherTracker,2013-05-11 19:27:00,
2013-05-11 15:29:00,70.1,64.3,29.82,West,275,0.0,0.0,82,0.05,,,0.05,WeatherTracker,2013-05-11 19:29:00,
2013-05-11 15:31:00,70.5,65.1,29.82,NNE,23,0.0,0.0,83,0.05,,,0.05,WeatherTracker,2013-05-11 19:31:00,
2013-05-11 15:33:00,70.7,65.6,29.82,NNE,23,0.0,0.0,84,0.05,,,0.05,WeatherTracker,2013-05-11 19:33:00,
2013-05-11 15:35:00,70.7,65.6,29.82,NNE,23,0.0,0.0,84,0.05,,,0.05,WeatherTracker,2013-05-11 19:35:00,
2013-05-11 15:36:00,70.7,66.3,29.82,NNE,23,0.0,0.0,86,0.05,,,0.05,WeatherTracker,2013-05-11 19:36:00,
2013-05-11 15:37:00,70.7,66.3,29.82,NNE,23,0.0,0.0,86,0.05,,,0.05,WeatherTracker,2013-05-11 19:37:00,
2013-05-11 15:40:00,70.6,66.2,29.82,NNE,23,0.0,0.0,86,0.05,,,0.05,WeatherTracker,2013-05-11 19:40:00,
2013-05-11 15:41:00,70.4,66.0,29.82,NNE,23,0.0,0.0,86,0.05,,,0.05,WeatherTracker,2013-05-11 19:41:00,
2013-05-11 15:43:00,70.5,66.1,29.82,NNE,24,0.0,0.0,86,0.05,,,0.05,WeatherTracker,2013-05-11 19:43:00,
2013-05-11 15:45:00,70.5,66.4,29.82,NNE,24,0.0,0.0,87,0.05,,,0.05,WeatherTracker,2013-05-11 19:45:00,
2013-05-11 15:47:00,70.5,66.1,29.82,NNE,23,0.0,0.0,86,0.05,,,0.05,WeatherTracker,2013-05-11 19:47:00,
2013-05-11 15:49:00,70.5,65.8,29.82,SW,227,4.0,0.0,85,0.05,,,0.05,WeatherTracker,2013-05-11 19:49:00,
2013-05-11 15:51:00,70.6,66.2,29.82,SW,227,0.0,0.0,86,0.05,,,0.05,WeatherTracker,2013-05-11 19:51:00,
2013-05-11 15:52:00,70.7,66.3,29.81,SW,227,0.0,0.0,86,0.05,,,0.05,WeatherTracker,2013-05-11 19:52:00,
2013-05-11 15:53:00,70.7,66.6,29.81,SW,227,0.0,0.0,87,0.05,,,0.05,WeatherTracker,2013-05-11 19:53:00,
2013-05-11 15:55:00,70.8,66.7,29.81,SW,227,0.0,0.0,87,0.05,,,0.05,WeatherTracker,2013-05-11 19:55:00,
2013-05-11 15:57:00,71.1,67.0,29.81,SW,233,2.0,0.0,87,0.05,,,0.05,WeatherTracker,2013-05-11 19:57:00,
2013-05-11 15:58:00,71.0,66.9,29.81,SW,233,0.0,0.0,87,0.05,,,0.05,WeatherTracker,2013-05-11 19:58:00,
2013-05-11 15:59:00,71.0,66.6,29.81,SW,233,1.0,0.0,86,0.05,,,0.05,WeatherTracker,2013-05-11 19:59:00,
2013-05-11 16:00:00,71.2,67.5,29.81,SW,233,0.0,0.0,88,0.05,,,0.05,WeatherTracker,2013-05-11 20:00:00,
2013-05-11 16:03:00,71.2,67.1,29.81,SW,233,0.0,0.0,87,0.05,,,0.05,WeatherTracker,2013-05-11 20:03:00,
2013-05-11 16:05:00,71.3,66.9,29.81,SW,233,0.0,0.0,86,0.05,,,0.05,WeatherTracker,2013-05-11 20:05:00,
2013-05-11 16:06:00,71.4,66.6,29.81,SW,233,1.0,0.0,85,0.05,,,0.05,WeatherTracker,2013-05-11 20:06:00,
2013-05-11 16:08:00,71.6,66.8,29.81,SW,233,0.0,0.0,85,0.05,,,0.05,WeatherTracker,2013-05-11 20:08:00,
2013-05-11 16:10:00,71.6,66.5,29.81,SW,217,1.0,0.0,84,0.05,,,0.05,WeatherTracker,2013-05-11 20:10:00,
2013-05-11 16:12:00,71.3,66.5,29.81,SW,217,0.0,0.0,85,0.05,,,0.05,WeatherTracker,2013-05-11 20:12:00,
2013-05-11 16:13:00,71.4,66.6,29.81,SW,217,0.0,0.0,85,0.05,,,0.05,WeatherTracker,2013-05-11 20:13:00,
2013-05-11 16:14:00,71.7,67.3,29.80,SW,217,0.0,0.0,86,0.05,,,0.05,WeatherTracker,2013-05-11 20:14:00,
2013-05-11 16:15:00,71.7,67.3,29.81,SW,217,0.0,0.0,86,0.03,,,0.05,WeatherTracker,2013-05-11 20:15:00,
2013-05-11 16:16:00,71.8,67.0,29.81,SW,217,0.0,0.0,85,0.01,,,0.05,WeatherTracker,2013-05-11 20:16:00,
2013-05-11 16:17:00,71.9,66.8,29.81,SW,217,0.0,0.0,84,0.00,,,0.05,WeatherTracker,2013-05-11 20:17:00,
2013-05-11 16:18:00,71.9,66.8,29.81,SW,217,0.0,0.0,84,0.00,,,0.05,WeatherTracker,2013-05-11 20:18:00,
2013-05-11 16:20:00,71.9,66.4,29.81,SW,217,0.0,0.0,83,0.00,,,0.05,WeatherTracker,2013-05-11 20:20:00,
2013-05-11 16:21:00,71.9,66.8,29.81,SW,217,0.0,0.0,84,0.00,,,0.05,WeatherTracker,2013-05-11 20:21:00,
2013-05-11 16:23:00,72.0,66.9,29.81,SW,217,0.0,0.0,84,0.00,,,0.05,WeatherTracker,2013-05-11 20:23:00,
2013-05-11 16:24:00,72.0,66.9,29.81,SW,217,0.0,0.0,84,0.00,,,0.05,WeatherTracker,2013-05-11 20:24:00,
2013-05-11 16:26:00,72.4,67.3,29.81,SW,217,0.0,0.0,84,0.00,,,0.05,WeatherTracker,2013-05-11 20:26:00,
2013-05-11 16:28:00,72.3,66.5,29.81,SW,217,0.0,0.0,82,0.00,,,0.05,WeatherTracker,2013-05-11 20:28:00,
2013-05-11 16:29:00,72.5,66.7,29.81,SW,217,0.0,0.0,82,0.00,,,0.05,WeatherTracker,2013-05-11 20:29:00,
2013-05-11 16:31:00,72.5,66.7,29.81,South,170,0.0,0.0,82,0.00,,,0.05,WeatherTracker,2013-05-11 20:31:00,
2013-05-11 16:35:00,73.0,65.7,29.80,South,170,1.0,0.0,78,0.00,,,0.05,WeatherTracker,2013-05-11 20:35:00,
2013-05-11 16:37:00,73.1,65.4,29.80,South,171,2.0,0.0,77,0.00,,,0.05,WeatherTracker,2013-05-11 20:37:00,
2013-05-11 16:38:00,73.3,65.6,29.80,NW,306,3.0,0.0,77,0.00,,,0.05,WeatherTracker,2013-05-11 20:38:00,
2013-05-11 16:40:00,73.4,65.4,29.80,WSW,243,0.0,0.0,76,0.00,,,0.05,WeatherTracker,2013-05-11 20:40:00,
2013-05-11 16:41:00,73.5,65.8,29.80,WSW,243,0.0,0.0,77,0.00,,,0.05,WeatherTracker,2013-05-11 20:41:00,
2013-05-11 16:42:00,73.7,66.0,29.80,WSW,243,0.0,0.0,77,0.00,,,0.05,WeatherTracker,2013-05-11 20:42:00,
2013-05-11 16:43:00,73.7,65.3,29.80,WSW,243,0.0,0.0,75,0.00,,,0.05,WeatherTracker,2013-05-11 20:43:00,
2013-05-11 16:44:00,73.8,65.4,29.80,WSW,243,0.0,0.0,75,0.00,,,0.05,WeatherTracker,2013-05-11 20:44:00,
2013-05-11 16:45:00,73.9,65.8,29.80,WSW,243,0.0,0.0,76,0.00,,,0.05,WeatherTracker,2013-05-11 20:45:00,
2013-05-11 16:46:00,74.1,65.7,29.80,South,178,0.0,0.0,75,0.00,,,0.05,WeatherTracker,2013-05-11 20:46:00,
2013-05-11 16:47:00,74.3,65.8,29.80,South,178,0.0,0.0,75,0.00,,,0.05,WeatherTracker,2013-05-11 20:47:00,
2013-05-11 16:49:00,74.4,65.9,29.80,South,178,1.0,0.0,75,0.00,,,0.05,WeatherTracker,2013-05-11 20:49:00,
2013-05-11 16:51:00,74.5,66.4,29.80,South,178,1.0,0.0,76,0.00,,,0.05,WeatherTracker,2013-05-11 20:51:00,
2013-05-11 16:54:00,74.6,66.5,29.81,SSW,201,2.0,0.0,76,0.00,,,0.05,WeatherTracker,2013-05-11 20:54:00,
2013-05-11 16:55:00,74.6,66.1,29.81,SSW,201,1.0,0.0,75,0.00,,,0.05,WeatherTracker,2013-05-11 20:55:00,
2013-05-11 16:56:00,74.3,65.8,29.82,SSW,201,1.0,0.0,75,0.00,,,0.05,WeatherTracker,2013-05-11 20:56:00,
2013-05-11 17:00:00,73.8,65.7,29.81,SW,215,1.0,0.0,76,0.00,,,0.05,WeatherTracker,2013-05-11 21:00:00,
2013-05-11 17:01:00,73.8,66.1,29.81,SW,215,1.0,0.0,77,0.00,,,0.05,WeatherTracker,2013-05-11 21:01:00,
2013-05-11 17:02:00,73.8,66.1,29.80,SW,215,1.0,0.0,77,0.00,,,0.05,WeatherTracker,2013-05-11 21:02:00,
2013-05-11 17:05:00,73.9,66.2,29.80,SW,218,0.0,0.0,77,0.00,,,0.05,WeatherTracker,2013-05-11 21:05:00,
2013-05-11 17:06:00,74.0,66.3,29.80,SW,232,0.0,0.0,77,0.00,,,0.05,WeatherTracker,2013-05-11 21:06:00,
2013-05-11 17:07:00,73.9,66.2,29.80,SW,232,0.0,0.0,77,0.00,,,0.05,WeatherTracker,2013-05-11 21:07:00,
2013-05-11 17:08:00,73.9,65.8,29.80,SW,232,1.0,0.0,76,0.00,,,0.05,WeatherTracker,2013-05-11 21:08:00,
2013-05-11 17:10:00,73.9,65.5,29.80,SW,217,0.0,0.0,75,0.00,,,0.05,WeatherTracker,2013-05-11 21:10:00,
2013-05-11 17:12:00,74.0,65.9,29.80,West,263,2.0,0.0,76,0.00,,,0.05,WeatherTracker,2013-05-11 21:12:00,
2013-05-11 17:13:00,74.0,65.2,29.80,SW,235,1.0,0.0,74,0.00,,,0.05,WeatherTracker,2013-05-11 21:13:00,
2013-05-11 17:14:00,74.0,65.2,29.80,SW,235,0.0,0.0,74,0.00,,,0.05,WeatherTracker,2013-05-11 21:14:00,
2013-05-11 17:16:00,74.1,65.7,29.80,North,355,1.0,0.0,75,0.00,,,0.05,WeatherTracker,2013-05-11 21:16:00,
2013-05-11 17:17:00,74.2,65.8,29.80,North,355,0.0,0.0,75,0.00,,,0.05,WeatherTracker,2013-05-11 21:17:00,
2013-05-11 17:18:00,74.3,65.8,29.80,North,355,1.0,0.0,75,0.00,,,0.05,WeatherTracker,2013-05-11 21:18:00,
2013-05-11 17:19:00,74.3,65.8,29.80,NNE,19,1.0,0.0,75,0.00,,,0.05,WeatherTracker,2013-05-11 21:19:00,
2013-05-11 17:21:00,74.4,65.9,29.80,SSE,162,0.0,0.0,75,0.00,,,0.05,WeatherTracker,2013-05-11 21:21:00,
2013-05-11 17:23:00,74.3,65.8,29.80,SSE,162,0.0,0.0,75,0.00,,,0.05,WeatherTracker,2013-05-11 21:23:00,
2013-05-11 17:24:00,74.2,65.4,29.81,WNW,292,3.0,0.0,74,0.00,,,0.05,WeatherTracker,2013-05-11 21:24:00,
2013-05-11 17:26:00,74.0,65.6,29.81,WSW,252,1.0,0.0,75,0.00,,,0.05,WeatherTracker,2013-05-11 21:26:00,
2013-05-11 17:28:00,74.0,65.9,29.81,West,265,1.0,0.0,76,0.00,,,0.05,WeatherTracker,2013-05-11 21:28:00,
2013-05-11 17:29:00,73.9,65.8,29.80,West,265,1.0,0.0,76,0.00,,,0.05,WeatherTracker,2013-05-11 21:29:00,
2013-05-11 17:30:00,73.9,65.1,29.81,West,264,1.0,0.0,74,0.00,,,0.05,WeatherTracker,2013-05-11 21:30:00,
2013-05-11 17:31:00,73.8,65.0,29.81,West,264,0.0,0.0,74,0.00,,,0.05,WeatherTracker,2013-05-11 21:31:00,
2013-05-11 17:33:00,73.6,65.6,29.80,West,263,0.0,0.0,76,0.00,,,0.05,WeatherTracker,2013-05-11 21:33:00,
2013-05-11 17:35:00,73.5,65.5,29.80,West,263,0.0,0.0,76,0.00,,,0.05,WeatherTracker,2013-05-11 21:35:00,
2013-05-11 17:36:00,73.6,65.6,29.80,West,263,0.0,0.0,76,0.00,,,0.05,WeatherTracker,2013-05-11 21:36:00,
2013-05-11 17:38:00,73.7,65.7,29.80,SW,236,1.0,0.0,76,0.00,,,0.05,WeatherTracker,2013-05-11 21:38:00,
2013-05-11 17:40:00,73.3,65.3,29.80,SW,231,1.0,0.0,76,0.00,,,0.05,WeatherTracker,2013-05-11 21:40:00,
2013-05-11 17:42:00,73.1,65.1,29.80,SW,231,0.0,0.0,76,0.00,,,0.05,WeatherTracker,2013-05-11 21:42:00,
2013-05-11 17:43:00,73.1,65.1,29.80,SW,231,0.0,0.0,76,0.00,,,0.05,WeatherTracker,2013-05-11 21:43:00,
2013-05-11 17:44:00,73.2,65.2,29.80,SW,231,0.0,0.0,76,0.00,,,0.05,WeatherTracker,2013-05-11 21:44:00,
2013-05-11 17:45:00,73.3,65.6,29.80,West,273,0.0,0.0,77,0.00,,,0.05,WeatherTracker,2013-05-11 21:45:00,
2013-05-11 17:46:00,73.3,65.6,29.80,West,264,1.0,0.0,77,0.00,,,0.05,WeatherTracker,2013-05-11 21:46:00,
2013-05-11 17:48:00,73.1,65.4,29.80,WSW,251,3.0,0.0,77,0.00,,,0.05,WeatherTracker,2013-05-11 21:48:00,
2013-05-11 17:49:00,73.0,65.4,29.80,WSW,251,2.0,0.0,77,0.00,,,0.05,WeatherTracker,2013-05-11 21:49:00,
2013-05-11 17:51:00,72.8,65.2,29.80,WSW,248,0.0,0.0,77,0.00,,,0.05,WeatherTracker,2013-05-11 21:51:00,
2013-05-11 17:52:00,72.8,65.2,29.80,WSW,248,0.0,0.0,77,0.00,,,0.05,WeatherTracker,2013-05-11 21:52:00,
2013-05-11 17:53:00,72.8,65.5,29.80,WSW,238,0.0,0.0,78,0.00,,,0.05,WeatherTracker,2013-05-11 21:53:00,
2013-05-11 17:54:00,72.8,65.2,29.80,WSW,238,1.0,0.0,77,0.00,,,0.05,WeatherTracker,2013-05-11 21:54:00,
2013-05-11 17:57:00,73.0,65.4,29.80,ESE,109,0.0,0.0,77,0.00,,,0.05,WeatherTracker,2013-05-11 21:57:00,
2013-05-11 17:59:00,73.1,65.4,29.80,West,273,2.0,0.0,77,0.00,,,0.05,WeatherTracker,2013-05-11 21:59:00,
2013-05-11 18:00:00,73.1,65.1,29.80,WNW,300,0.0,0.0,76,0.00,,,0.05,WeatherTracker,2013-05-11 22:00:00,
2013-05-11 18:03:00,73.1,65.1,29.80,WSW,241,1.0,0.0,76,0.00,,,0.05,WeatherTracker,2013-05-11 22:03:00,
2013-05-11 18:04:00,73.1,65.1,29.80,WSW,241,0.0,0.0,76,0.00,,,0.05,WeatherTracker,2013-05-11 22:04:00,
2013-05-11 18:05:00,73.2,65.5,29.80,WSW,241,0.0,0.0,77,0.00,,,0.05,WeatherTracker,2013-05-11 22:05:00,
2013-05-11 18:08:00,73.1,65.1,29.80,WSW,241,0.0,0.0,76,0.00,,,0.05,WeatherTracker,2013-05-11 22:08:00,
2013-05-11 18:09:00,73.1,65.1,29.80,WSW,241,0.0,0.0,76,0.00,,,0.05,WeatherTracker,2013-05-11 22:09:00,
2013-05-11 18:10:00,73.0,65.0,29.80,WSW,241,0.0,0.0,76,0.00,,,0.05,WeatherTracker,2013-05-11 22:10:00,
2013-05-11 18:11:00,73.0,65.0,29.80,WSW,241,0.0,0.0,76,0.00,,,0.05,WeatherTracker,2013-05-11 22:11:00,
2013-05-11 18:13:00,73.0,65.4,29.80,WSW,241,2.0,0.0,77,0.00,,,0.05,WeatherTracker,2013-05-11 22:13:00,
2013-05-11 18:15:00,73.1,65.4,29.80,WSW,241,0.0,0.0,77,0.00,,,0.05,WeatherTracker,2013-05-11 22:15:00,
2013-05-11 18:16:00,73.3,65.3,29.80,WSW,241,0.0,0.0,76,0.00,,,0.05,WeatherTracker,2013-05-11 22:16:00,
2013-05-11 18:17:00,73.5,65.5,29.80,WSW,241,1.0,0.0,76,0.00,,,0.05,WeatherTracker,2013-05-11 22:17:00,
2013-05-11 18:19:00,73.9,65.5,29.80,WSW,241,1.0,0.0,75,0.00,,,0.05,WeatherTracker,2013-05-11 22:19:00,
2013-05-11 18:20:00,73.9,65.1,29.79,WSW,241,1.0,0.0,74,0.00,,,0.05,WeatherTracker,2013-05-11 22:20:00,
2013-05-11 18:21:00,73.9,65.5,29.79,WSW,241,0.0,0.0,75,0.00,,,0.05,WeatherTracker,2013-05-11 22:21:00,
2013-05-11 18:22:00,74.0,65.2,29.79,WSW,241,0.0,0.0,74,0.00,,,0.05,WeatherTracker,2013-05-11 22:22:00,
2013-05-11 18:24:00,74.2,65.0,29.79,WSW,253,1.0,0.0,73,0.00,,,0.05,WeatherTracker,2013-05-11 22:24:00,
2013-05-11 18:26:00,74.2,65.0,29.79,WSW,252,0.0,0.0,73,0.00,,,0.05,WeatherTracker,2013-05-11 22:26:00,
2013-05-11 18:27:00,74.4,65.6,29.79,WSW,252,0.0,0.0,74,0.00,,,0.05,WeatherTracker,2013-05-11 22:27:00,
2013-05-11 18:30:00,74.8,65.6,29.78,NW,319,2.0,0.0,73,0.00,,,0.05,WeatherTracker,2013-05-11 22:30:00,
2013-05-11 18:31:00,74.8,64.8,29.78,West,270,1.0,0.0,71,0.00,,,0.05,WeatherTracker,2013-05-11 22:31:00,
2013-05-11 18:32:00,74.8,65.2,29.78,West,276,1.0,0.0,72,0.00,,,0.05,WeatherTracker,2013-05-11 22:32:00,
2013-05-11 18:35:00,75.0,65.3,29.79,West,277,0.0,0.0,72,0.00,,,0.05,WeatherTracker,2013-05-11 22:35:00,
2013-05-11 18:36:00,75.1,65.0,29.78,West,277,0.0,0.0,71,0.00,,,0.05,WeatherTracker,2013-05-11 22:36:00,
2013-05-11 18:37:00,75.2,65.1,29.78,West,277,1.0,0.0,71,0.00,,,0.05,WeatherTracker,2013-05-11 22:37:00,
2013-05-11 18:38:00,75.3,65.2,29.78,West,277,1.0,0.0,71,0.00,,,0.05,WeatherTracker,2013-05-11 22:38:00,
2013-05-11 18:40:00,75.4,65.3,29.79,SW,233,3.0,0.0,71,0.00,,,0.05,WeatherTracker,2013-05-11 22:40:00,
2013-05-11 18:41:00,75.3,65.2,29.78,WSW,252,1.0,0.0,71,0.00,,,0.05,WeatherTracker,2013-05-11 22:41:00,
2013-05-11 18:43:00,75.2,64.3,29.78,West,267,2.0,0.0,69,0.00,,,0.05,WeatherTracker,2013-05-11 22:43:00,
2013-05-11 18:44:00,75.2,64.7,29.78,WSW,244,2.0,0.0,70,0.00,,,0.05,WeatherTracker,2013-05-11 22:44:00,
2013-05-11 18:45:00,75.2,65.1,29.78,WSW,240,2.0,0.0,71,0.00,,,0.05,WeatherTracker,2013-05-11 22:45:00,
2013-05-11 18:46:00,75.1,65.0,29.78,SW,217,2.0,0.0,71,0.00,,,0.05,WeatherTracker,2013-05-11 22:46:00,
2013-05-11 18:48:00,75.0,64.9,29.78,SSW,206,0.0,0.0,71,0.00,,,0.05,WeatherTracker,2013-05-11 22:48:00,
2013-05-11 18:49:00,75.0,64.5,29.78,SSW,206,1.0,0.0,70,0.00,,,0.05,WeatherTracker,2013-05-11 22:49:00,
2013-05-11 18:50:00,74.9,64.8,29.78,SW,217,4.0,0.0,71,0.00,,,0.05,WeatherTracker,2013-05-11 22:50:00,
2013-05-11 18:51:00,74.8,64.8,29.78,SW,220,2.0,0.0,71,0.00,,,0.05,WeatherTracker,2013-05-11 22:51:00,
2013-05-11 18:52:00,74.8,64.3,29.78,SW,220,1.0,0.0,70,0.00,,,0.05,WeatherTracker,2013-05-11 22:52:00,
2013-05-11 18:54:00,74.7,64.7,29.78,SW,234,1.0,0.0,71,0.00,,,0.05,WeatherTracker,2013-05-11 22:54:00,
2013-05-11 18:55:00,74.7,64.7,29.78,SSW,207,2.0,0.0,71,0.00,,,0.05,WeatherTracker,2013-05-11 22:55:00,
2013-05-11 18:56:00,74.7,64.7,29.78,SSW,207,0.0,0.0,71,0.00,,,0.05,WeatherTracker,2013-05-11 22:56:00,
2013-05-11 18:57:00,74.7,64.7,29.78,SW,214,1.0,0.0,71,0.00,,,0.05,WeatherTracker,2013-05-11 22:57:00,
2013-05-11 18:58:00,74.7,64.7,29.78,SSW,196,2.0,0.0,71,0.00,,,0.05,WeatherTracker,2013-05-11 22:58:00,
2013-05-11 19:00:00,74.6,65.0,29.78,SSW,196,0.0,0.0,72,0.00,,,0.05,WeatherTracker,2013-05-11 23:00:00,
2013-05-11 19:02:00,74.6,65.0,29.78,West,281,1.0,0.0,72,0.00,,,0.05,WeatherTracker,2013-05-11 23:02:00,
2013-05-11 19:04:00,74.4,64.4,29.78,West,261,2.0,0.0,71,0.00,,,0.05,WeatherTracker,2013-05-11 23:04:00,
2013-05-11 19:06:00,74.3,64.7,29.78,WSW,253,1.0,0.0,72,0.00,,,0.05,WeatherTracker,2013-05-11 23:06:00,
2013-05-11 19:07:00,74.3,64.7,29.78,WSW,253,0.0,0.0,72,0.00,,,0.05,WeatherTracker,2013-05-11 23:07:00,
2013-05-11 19:09:00,74.2,64.6,29.78,WSW,253,1.0,0.0,72,0.00,,,0.05,WeatherTracker,2013-05-11 23:09:00,
2013-05-11 19:11:00,74.1,64.5,29.78,WSW,252,2.0,0.0,72,0.00,,,0.05,WeatherTracker,2013-05-11 23:11:00,
2013-05-11 19:12:00,74.0,64.4,29.78,WSW,244,2.0,0.0,72,0.00,,,0.05,WeatherTracker,2013-05-11 23:12:00,
2013-05-11 19:13:00,74.0,64.4,29.78,WSW,245,2.0,0.0,72,0.00,,,0.05,WeatherTracker,2013-05-11 23:13:00,
2013-05-11 19:15:00,73.9,64.7,29.78,WSW,245,0.0,0.0,73,0.00,,,0.05,WeatherTracker,2013-05-11 23:15:00,
2013-05-11 19:16:00,73.8,64.6,29.78,WSW,238,1.0,0.0,73,0.00,,,0.05,WeatherTracker,2013-05-11 23:16:00,
2013-05-11 19:18:00,73.8,64.6,29.78,West,268,0.0,0.0,73,0.00,,,0.05,WeatherTracker,2013-05-11 23:18:00,
2013-05-11 19:21:00,73.6,64.4,29.78,WSW,254,0.0,0.0,73,0.00,,,0.05,WeatherTracker,2013-05-11 23:21:00,
2013-05-11 19:23:00,73.6,64.4,29.78,WSW,246,1.0,0.0,73,0.00,,,0.05,WeatherTracker,2013-05-11 23:23:00,
2013-05-11 19:24:00,73.5,64.3,29.78,WSW,246,1.0,0.0,73,0.00,,,0.05,WeatherTracker,2013-05-11 23:24:00,
2013-05-11 19:26:00,73.4,64.6,29.79,WSW,246,1.0,0.0,74,0.00,,,0.05,WeatherTracker,2013-05-11 23:26:00,
2013-05-11 19:29:00,73.2,64.4,29.79,WSW,247,1.0,0.0,74,0.00,,,0.05,WeatherTracker,2013-05-11 23:29:00,
2013-05-11 19:30:00,73.1,64.7,29.79,West,279,1.0,0.0,75,0.00,,,0.05,WeatherTracker,2013-05-11 23:30:00,
2013-05-11 19:32:00,72.9,64.5,29.79,West,279,0.0,0.0,75,0.00,,,0.05,WeatherTracker,2013-05-11 23:32:00,
2013-05-11 19:34:00,72.8,64.4,29.79,West,279,1.0,0.0,75,0.00,,,0.05,WeatherTracker,2013-05-11 23:34:00,
2013-05-11 19:35:00,72.8,64.4,29.79,West,279,0.0,0.0,75,0.00,,,0.05,WeatherTracker,2013-05-11 23:35:00,
2013-05-11 19:36:00,72.8,64.4,29.79,NNE,24,0.0,0.0,75,0.00,,,0.05,WeatherTracker,2013-05-11 23:36:00,
2013-05-11 19:38:00,72.6,64.6,29.79,NNE,24,0.0,0.0,76,0.00,,,0.05,WeatherTracker,2013-05-11 23:38:00,
2013-05-11 19:40:00,72.6,64.6,29.79,WNW,285,1.0,0.0,76,0.00,,,0.05,WeatherTracker,2013-05-11 23:40:00,
2013-05-11 19:41:00,72.5,64.5,29.79,WNW,285,0.0,0.0,76,0.00,,,0.05,WeatherTracker,2013-05-11 23:41:00,
2013-05-11 19:43:00,72.4,64.4,29.80,WNW,285,0.0,0.0,76,0.00,,,0.05,WeatherTracker,2013-05-11 23:43:00,
2013-05-11 19:45:00,72.3,64.3,29.80,WNW,285,0.0,0.0,76,0.00,,,0.05,WeatherTracker,2013-05-11 23:45:00,
2013-05-11 19:46:00,72.2,64.2,29.80,WNW,285,0.0,0.0,76,0.00,,,0.05,WeatherTracker,2013-05-11 23:46:00,
2013-05-11 19:47:00,72.1,64.1,29.80,WNW,285,1.0,0.0,76,0.00,,,0.05,WeatherTracker,2013-05-11 23:47:00,
2013-05-11 19:50:00,72.0,64.4,29.80,WNW,285,0.0,0.0,77,0.00,,,0.05,WeatherTracker,2013-05-11 23:50:00,
2013-05-11 19:51:00,72.0,64.4,29.80,WNW,285,0.0,0.0,77,0.00,,,0.05,WeatherTracker,2013-05-11 23:51:00,
2013-05-11 19:52:00,71.9,64.3,29.80,WNW,285,0.0,0.0,77,0.00,,,0.05,WeatherTracker,2013-05-11 23:52:00,
2013-05-11 19:53:00,71.9,64.3,29.80,WNW,285,0.0,0.0,77,0.00,,,0.05,WeatherTracker,2013-05-11 23:53:00,
2013-05-11 19:55:00,71.8,64.6,29.80,WNW,285,1.0,0.0,78,0.00,,,0.05,WeatherTracker,2013-05-11 23:55:00,
2013-05-11 19:57:00,71.7,64.5,29.80,WNW,285,1.0,0.0,78,0.00,,,0.05,WeatherTracker,2013-05-11 23:57:00,
2013-05-11 20:00:00,71.5,64.3,29.80,WNW,285,1.0,0.0,78,0.00,,,0.05,WeatherTracker,2013-05-12 00:00:00,
2013-05-11 20:01:00,71.5,64.3,29.80,WNW,285,1.0,0.0,78,0.00,,,0.05,WeatherTracker,2013-05-12 00:01:00,
2013-05-11 20:02:00,71.5,64.3,29.80,WNW,285,0.0,0.0,78,0.00,,,0.05,WeatherTracker,2013-05-12 00:02:00,
2013-05-11 20:03:00,71.5,64.3,29.79,WNW,285,1.0,0.0,78,0.00,,,0.05,WeatherTracker,2013-05-12 00:03:00,
2013-05-11 20:06:00,71.4,64.2,29.80,WNW,285,2.0,0.0,78,0.00,,,0.05,WeatherTracker,2013-05-12 00:06:00,
2013-05-11 20:08:00,71.3,64.4,29.80,WNW,285,1.0,0.0,79,0.00,,,0.05,WeatherTracker,2013-05-12 00:08:00,
2013-05-11 20:11:00,71.2,64.3,29.81,WNW,285,2.0,0.0,79,0.00,,,0.05,WeatherTracker,2013-05-12 00:11:00,
2013-05-11 20:13:00,71.1,64.6,29.81,WNW,285,0.0,0.0,80,0.00,,,0.05,WeatherTracker,2013-05-12 00:13:00,
2013-05-11 20:14:00,71.0,64.5,29.81,WNW,285,0.0,0.0,80,0.00,,,0.05,WeatherTracker,2013-05-12 00:14:00,
2013-05-11 20:16:00,71.0,64.5,29.81,WNW,285,1.0,0.0,80,0.00,,,0.05,WeatherTracker,2013-05-12 00:16:00,
2013-05-11 20:18:00,70.9,64.4,29.81,WNW,285,1.0,0.0,80,0.00,,,0.05,WeatherTracker,2013-05-12 00:18:00,
2013-05-11 20:20:00,70.9,64.4,29.80,WNW,285,1.0,0.0,80,0.00,,,0.05,WeatherTracker,2013-05-12 00:20:00,
2013-05-11 20:22:00,70.8,64.3,29.80,WNW,285,0.0,0.0,80,0.00,,,0.05,WeatherTracker,2013-05-12 00:22:00,
2013-05-11 20:23:00,70.8,64.3,29.80,WNW,285,1.0,0.0,80,0.00,,,0.05,WeatherTracker,2013-05-12 00:23:00,
2013-05-11 20:25:00,70.7,64.2,29.80,WNW,285,0.0,0.0,80,0.00,,,0.05,WeatherTracker,2013-05-12 00:25:00,
2013-05-11 20:26:00,70.8,64.3,29.80,WNW,285,1.0,0.0,80,0.00,,,0.05,WeatherTracker,2013-05-12 00:26:00,
2013-05-11 20:27:00,70.7,64.2,29.80,WNW,285,0.0,0.0,80,0.00,,,0.05,WeatherTracker,2013-05-12 00:27:00,
2013-05-11 20:29:00,70.6,64.5,29.80,WNW,285,0.0,0.0,81,0.00,,,0.05,WeatherTracker,2013-05-12 00:29:00,
2013-05-11 20:30:00,70.6,64.5,29.80,WNW,285,1.0,0.0,81,0.00,,,0.05,WeatherTracker,2013-05-12 00:30:00,
2013-05-11 20:32:00,70.6,64.5,29.80,WNW,285,0.0,0.0,81,0.00,,,0.05,WeatherTracker,2013-05-12 00:32:00,
2013-05-11 20:33:00,70.6,64.5,29.80,WNW,285,0.0,0.0,81,0.00,,,0.05,WeatherTracker,2013-05-12 00:33:00,
2013-05-11 20:35:00,70.5,64.4,29.80,WNW,284,0.0,0.0,81,0.00,,,0.05,WeatherTracker,2013-05-12 00:35:00,
2013-05-11 20:36:00,70.5,64.4,29.80,WNW,284,1.0,0.0,81,0.00,,,0.05,WeatherTracker,2013-05-12 00:36:00,
2013-05-11 20:37:00,70.5,64.4,29.81,WNW,284,2.0,0.0,81,0.00,,,0.05,WeatherTracker,2013-05-12 00:37:00,
2013-05-11 20:38:00,70.5,64.4,29.81,WNW,284,1.0,0.0,81,0.00,,,0.05,WeatherTracker,2013-05-12 00:38:00,
2013-05-11 20:40:00,70.5,64.4,29.80,WNW,284,0.0,0.0,81,0.00,,,0.05,WeatherTracker,2013-05-12 00:40:00,
2013-05-11 20:42:00,70.5,64.4,29.81,WNW,284,0.0,0.0,81,0.00,,,0.05,WeatherTracker,2013-05-12 00:42:00,
2013-05-11 20:43:00,70.6,64.5,29.81,WNW,284,0.0,0.0,81,0.00,,,0.05,WeatherTracker,2013-05-12 00:43:00,
2013-05-11 20:46:00,70.5,64.4,29.81,WNW,284,0.0,0.0,81,0.00,,,0.05,WeatherTracker,2013-05-12 00:46:00,
2013-05-11 20:48:00,70.4,64.3,29.81,WNW,284,0.0,0.0,81,0.00,,,0.05,WeatherTracker,2013-05-12 00:48:00,
2013-05-11 20:49:00,70.4,64.3,29.81,WNW,284,0.0,0.0,81,0.00,,,0.05,WeatherTracker,2013-05-12 00:49:00,
2013-05-11 20:51:00,70.3,64.2,29.81,WNW,284,0.0,0.0,81,0.00,,,0.05,WeatherTracker,2013-05-12 00:51:00,
2013-05-11 20:54:00,70.2,64.1,29.81,WNW,285,1.0,0.0,81,0.00,,,0.05,WeatherTracker,2013-05-12 00:54:00,
2013-05-11 20:55:00,70.2,64.1,29.81,WNW,285,0.0,0.0,81,0.00,,,0.05,WeatherTracker,2013-05-12 00:55:00,
2013-05-11 20:57:00,70.1,64.3,29.81,WNW,285,1.0,0.0,82,0.00,,,0.05,WeatherTracker,2013-05-12 00:57:00,
2013-05-11 21:00:00,70.1,64.3,29.81,WNW,285,0.0,0.0,82,0.00,,,0.05,WeatherTracker,2013-05-12 01:00:00,
2013-05-11 21:02:00,70.0,64.2,29.81,WNW,285,0.0,0.0,82,0.00,,,0.05,WeatherTracker,2013-05-12 01:02:00,
2013-05-11 21:03:00,69.9,64.1,29.81,WNW,285,0.0,0.0,82,0.00,,,0.05,WeatherTracker,2013-05-12 01:03:00,
2013-05-11 21:05:00,69.9,64.1,29.81,WNW,285,0.0,0.0,82,0.00,,,0.05,WeatherTracker,2013-05-12 01:05:00,
2013-05-11 21:06:00,69.8,64.4,29.81,WNW,285,0.0,0.0,83,0.00,,,0.05,WeatherTracker,2013-05-12 01:06:00,
2013-05-11 21:08:00,69.8,64.4,29.80,WNW,285,0.0,0.0,83,0.00,,,0.05,WeatherTracker,2013-05-12 01:08:00,
2013-05-11 21:11:00,69.7,64.3,29.80,WNW,285,0.0,0.0,83,0.00,,,0.05,WeatherTracker,2013-05-12 01:11:00,
2013-05-11 21:13:00,69.5,64.1,29.80,WNW,285,0.0,0.0,83,0.00,,,0.05,WeatherTracker,2013-05-12 01:13:00,
2013-05-11 21:15:00,69.5,64.1,29.80,WNW,285,0.0,0.0,83,0.00,,,0.05,WeatherTracker,2013-05-12 01:15:00,
2013-05-11 21:16:00,69.5,64.1,29.80,WNW,285,0.0,0.0,83,0.00,,,0.05,WeatherTracker,2013-05-12 01:16:00,
2013-05-11 21:17:00,69.5,64.1,29.80,WNW,285,0.0,0.0,83,0.00,,,0.05,WeatherTracker,2013-05-12 01:17:00,
2013-05-11 21:18:00,69.4,64.3,29.80,WNW,285,0.0,0.0,84,0.00,,,0.05,WeatherTracker,2013-05-12 01:18:00,
2013-05-11 21:20:00,69.3,64.2,29.80,WNW,285,0.0,0.0,84,0.00,,,0.05,WeatherTracker,2013-05-12 01:20:00,
2013-05-11 21:21:00,69.3,64.2,29.80,WNW,285,0.0,0.0,84,0.00,,,0.05,WeatherTracker,2013-05-12 01:21:00,
2013-05-11 21:22:00,69.2,64.2,29.80,WNW,285,0.0,0.0,84,0.00,,,0.05,WeatherTracker,2013-05-12 01:22:00,
2013-05-11 21:23:00,69.2,64.2,29.81,WNW,285,0.0,0.0,84,0.00,,,0.05,WeatherTracker,2013-05-12 01:23:00,
2013-05-11 21:25:00,69.0,64.0,29.81,WNW,285,0.0,0.0,84,0.00,,,0.05,WeatherTracker,2013-05-12 01:25:00,
2013-05-11 21:26:00,69.0,64.3,29.81,WNW,285,1.0,0.0,85,0.00,,,0.05,WeatherTracker,2013-05-12 01:26:00,
2013-05-11 21:27:00,68.9,64.2,29.81,WNW,285,0.0,0.0,85,0.00,,,0.05,WeatherTracker,2013-05-12 01:27:00,
2013-05-11 21:29:00,68.7,64.0,29.81,WNW,285,0.0,0.0,85,0.00,,,0.05,WeatherTracker,2013-05-12 01:29:00,
2013-05-11 21:30:00,68.6,64.2,29.81,WNW,285,1.0,0.0,86,0.00,,,0.05,WeatherTracker,2013-05-12 01:30:00,
2013-05-11 21:31:00,68.4,64.0,29.81,NW,313,1.0,0.0,86,0.00,,,0.05,WeatherTracker,2013-05-12 01:31:00,
2013-05-11 21:32:00,68.4,64.0,29.81,NW,313,1.0,0.0,86,0.00,,,0.05,WeatherTracker,2013-05-12 01:32:00,
2013-05-11 21:34:00,68.5,64.1,29.81,NW,313,1.0,0.0,86,0.00,,,0.05,WeatherTracker,2013-05-12 01:34:00,
2013-05-11 21:36:00,68.5,64.1,29.82,NW,313,0.0,0.0,86,0.00,,,0.05,WeatherTracker,2013-05-12 01:36:00,
2013-05-11 21:37:00,68.5,64.1,29.81,NW,313,0.0,0.0,86,0.00,,,0.05,WeatherTracker,2013-05-12 01:37:00,
2013-05-11 21:38:00,68.4,64.0,29.81,NW,313,1.0,0.0,86,0.00,,,0.05,WeatherTracker,2013-05-12 01:38:00,
2013-05-11 21:41:00,68.2,63.8,29.81,NW,313,0.0,0.0,86,0.00,,,0.05,WeatherTracker,2013-05-12 01:41:00,
2013-05-11 21:42:00,68.3,64.3,29.81,NW,313,0.0,0.0,87,0.00,,,0.05,WeatherTracker,2013-05-12 01:42:00,
2013-05-11 21:44:00,68.2,64.2,29.81,NW,313,0.0,0.0,87,0.00,,,0.05,WeatherTracker,2013-05-12 01:44:00,
2013-05-11 21:46:00,68.2,64.2,29.81,NW,313,0.0,0.0,87,0.00,,,0.05,WeatherTracker,2013-05-12 01:46:00,
2013-05-11 21:47:00,68.3,64.3,29.81,NW,313,0.0,0.0,87,0.00,,,0.05,WeatherTracker,2013-05-12 01:47:00,
2013-05-11 21:48:00,68.3,64.3,29.81,NW,313,0.0,0.0,87,0.00,,,0.05,WeatherTracker,2013-05-12 01:48:00,
2013-05-11 21:49:00,68.3,64.3,29.81,NW,313,0.0,0.0,87,0.00,,,0.05,WeatherTracker,2013-05-12 01:49:00,
2013-05-11 21:50:00,68.3,64.3,29.81,NW,313,0.0,0.0,87,0.00,,,0.05,WeatherTracker,2013-05-12 01:50:00,
2013-05-11 21:51:00,68.3,64.3,29.81,NW,313,0.0,0.0,87,0.00,,,0.05,WeatherTracker,2013-05-12 01:51:00,
2013-05-11 21:52:00,68.3,63.9,29.81,NW,313,0.0,0.0,86,0.00,,,0.05,WeatherTracker,2013-05-12 01:52:00,
2013-05-11 21:53:00,68.3,64.3,29.81,NW,313,0.0,0.0,87,0.00,,,0.05,WeatherTracker,2013-05-12 01:53:00,
2013-05-11 21:54:00,68.3,64.3,29.81,NW,313,0.0,0.0,87,0.00,,,0.05,WeatherTracker,2013-05-12 01:54:00,
2013-05-11 21:55:00,68.2,64.2,29.81,NW,313,0.0,0.0,87,0.00,,,0.05,WeatherTracker,2013-05-12 01:55:00,
2013-05-11 21:57:00,68.1,64.1,29.81,NW,313,0.0,0.0,87,0.00,,,0.05,WeatherTracker,2013-05-12 01:57:00,
2013-05-11 21:58:00,68.1,64.1,29.81,NW,313,0.0,0.0,87,0.00,,,0.05,WeatherTracker,2013-05-12 01:58:00,
2013-05-11 22:00:00,68.1,64.1,29.82,NW,313,0.0,0.0,87,0.00,,,0.05,WeatherTracker,2013-05-12 02:00:00,
2013-05-11 22:01:00,68.1,64.1,29.82,NW,313,0.0,0.0,87,0.00,,,0.05,WeatherTracker,2013-05-12 02:01:00,
2013-05-11 22:03:00,68.1,64.4,29.82,NW,306,4.0,0.0,88,0.00,,,0.05,WeatherTracker,2013-05-12 02:03:00,
2013-05-11 22:04:00,68.1,64.1,29.82,West,281,10.0,0.0,87,0.00,,,0.05,WeatherTracker,2013-05-12 02:04:00,
2013-05-11 22:05:00,68.1,64.1,29.82,North,355,9.0,0.0,87,0.00,,,0.05,WeatherTracker,2013-05-12 02:05:00,
2013-05-11 22:07:00,68.1,63.7,29.82,WNW,301,4.0,0.0,86,0.04,,,0.09,WeatherTracker,2013-05-12 02:07:00,
2013-05-11 22:08:00,68.0,63.6,29.82,NW,312,2.0,0.0,86,0.08,,,0.13,WeatherTracker,2013-05-12 02:08:00,
2013-05-11 22:09:00,67.9,63.9,29.82,NW,312,2.0,0.0,87,0.08,,,0.13,WeatherTracker,2013-05-12 02:09:00,
2013-05-11 22:10:00,67.7,63.7,29.82,NW,312,1.0,0.0,87,0.08,,,0.13,WeatherTracker,2013-05-12 02:10:00,
2013-05-11 22:12:00,67.2,63.5,29.82,NNW,329,2.0,0.0,88,0.09,,,0.14,WeatherTracker,2013-05-12 02:12:00,
2013-05-11 22:13:00,67.0,63.6,29.82,NW,308,2.0,0.0,89,0.09,,,0.14,WeatherTracker,2013-05-12 02:13:00,
2013-05-11 22:14:00,66.8,63.4,29.83,NW,308,0.0,0.0,89,0.09,,,0.14,WeatherTracker,2013-05-12 02:14:00,
2013-05-11 22:15:00,66.7,63.3,29.83,WNW,298,2.0,0.0,89,0.09,,,0.14,WeatherTracker,2013-05-12 02:15:00,
2013-05-11 22:16:00,66.7,63.3,29.82,WNW,292,1.0,0.0,89,0.09,,,0.14,WeatherTracker,2013-05-12 02:16:00,
2013-05-11 22:17:00,66.5,63.5,29.83,WNW,292,1.0,0.0,90,0.09,,,0.14,WeatherTracker,2013-05-12 02:17:00,
2013-05-11 22:19:00,66.3,63.3,29.82,WNW,294,0.0,0.0,90,0.09,,,0.14,WeatherTracker,2013-05-12 02:19:00,
2013-05-11 22:20:00,66.3,63.3,29.82,WNW,294,0.0,0.0,90,0.09,,,0.14,WeatherTracker,2013-05-12 02:20:00,
2013-05-11 22:21:00,66.2,63.5,29.82,WNW,294,1.0,0.0,91,0.09,,,0.14,WeatherTracker,2013-05-12 02:21:00,
2013-05-11 22:22:00,66.1,63.4,29.82,WNW,294,0.0,0.0,91,0.09,,,0.14,WeatherTracker,2013-05-12 02:22:00,
2013-05-11 22:25:00,65.9,63.2,29.82,WNW,294,0.0,0.0,91,0.09,,,0.14,WeatherTracker,2013-05-12 02:25:00,
2013-05-11 22:26:00,65.9,63.5,29.82,WNW,294,0.0,0.0,92,0.09,,,0.14,WeatherTracker,2013-05-12 02:26:00,
2013-05-11 22:27:00,65.8,63.4,29.82,WNW,294,0.0,0.0,92,0.09,,,0.14,WeatherTracker,2013-05-12 02:27:00,
2013-05-11 22:28:00,65.8,63.4,29.82,WNW,294,0.0,0.0,92,0.09,,,0.14,WeatherTracker,2013-05-12 02:28:00,
2013-05-11 22:30:00,65.7,63.3,29.82,WNW,294,0.0,0.0,92,0.09,,,0.14,WeatherTracker,2013-05-12 02:30:00,
2013-05-11 22:31:00,65.7,63.3,29.82,WNW,294,0.0,0.0,92,0.09,,,0.14,WeatherTracker,2013-05-12 02:31:00,
2013-05-11 22:32:00,65.6,63.2,29.82,WNW,294,0.0,0.0,92,0.09,,,0.14,WeatherTracker,2013-05-12 02:32:00,
2013-05-11 22:34:00,65.6,63.5,29.81,WNW,294,1.0,0.0,93,0.09,,,0.14,WeatherTracker,2013-05-12 02:34:00,
2013-05-11 22:36:00,65.5,63.4,29.81,WNW,294,0.0,0.0,93,0.09,,,0.14,WeatherTracker,2013-05-12 02:36:00,
2013-05-11 22:37:00,65.4,63.3,29.81,WNW,294,0.0,0.0,93,0.09,,,0.14,WeatherTracker,2013-05-12 02:37:00,
2013-05-11 22:38:00,65.4,63.3,29.82,WNW,294,0.0,0.0,93,0.09,,,0.14,WeatherTracker,2013-05-12 02:38:00,
2013-05-11 22:41:00,65.4,63.3,29.82,WNW,294,0.0,0.0,93,0.09,,,0.14,WeatherTracker,2013-05-12 02:41:00,
2013-05-11 22:42:00,65.3,63.2,29.82,WNW,294,0.0,0.0,93,0.09,,,0.14,WeatherTracker,2013-05-12 02:42:00,
2013-05-11 22:43:00,65.3,63.2,29.82,WNW,294,0.0,0.0,93,0.09,,,0.14,WeatherTracker,2013-05-12 02:43:00,
2013-05-11 22:44:00,65.2,63.1,29.82,WNW,294,0.0,0.0,93,0.09,,,0.14,WeatherTracker,2013-05-12 02:44:00,
2013-05-11 22:47:00,65.2,63.4,29.82,WNW,294,0.0,0.0,94,0.09,,,0.14,WeatherTracker,2013-05-12 02:47:00,
2013-05-11 22:48:00,65.2,63.4,29.82,WNW,294,0.0,0.0,94,0.09,,,0.14,WeatherTracker,2013-05-12 02:48:00,
2013-05-11 22:50:00,65.2,63.4,29.82,WNW,294,0.0,0.0,94,0.09,,,0.14,WeatherTracker,2013-05-12 02:50:00,
2013-05-11 22:52:00,65.2,63.4,29.82,WNW,294,1.0,0.0,94,0.09,,,0.14,WeatherTracker,2013-05-12 02:52:00,
2013-05-11 22:53:00,65.2,63.4,29.82,WNW,294,1.0,0.0,94,0.09,,,0.14,WeatherTracker,2013-05-12 02:53:00,
2013-05-11 22:56:00,65.2,63.4,29.82,WNW,294,0.0,0.0,94,0.09,,,0.14,WeatherTracker,2013-05-12 02:56:00,
2013-05-11 22:58:00,65.2,63.4,29.82,WNW,294,0.0,0.0,94,0.09,,,0.14,WeatherTracker,2013-05-12 02:58:00,
2013-05-11 23:00:00,65.2,63.4,29.82,WNW,294,0.0,0.0,94,0.09,,,0.14,WeatherTracker,2013-05-12 03:00:00,
2013-05-11 23:01:00,65.1,63.3,29.82,WNW,294,0.0,0.0,94,0.09,,,0.14,WeatherTracker,2013-05-12 03:01:00,
2013-05-11 23:03:00,65.1,63.3,29.82,WNW,294,1.0,0.0,94,0.09,,,0.14,WeatherTracker,2013-05-12 03:03:00,
2013-05-11 23:04:00,65.1,63.3,29.82,WNW,294,1.0,0.0,94,0.09,,,0.14,WeatherTracker,2013-05-12 03:04:00,
2013-05-11 23:05:00,65.1,63.3,29.82,WNW,294,0.0,0.0,94,0.09,,,0.14,WeatherTracker,2013-05-12 03:05:00,
2013-05-11 23:06:00,65.1,63.3,29.82,WNW,294,0.0,0.0,94,0.07,,,0.14,WeatherTracker,2013-05-12 03:06:00,
2013-05-11 23:07:00,65.1,63.3,29.82,WNW,294,0.0,0.0,94,0.06,,,0.14,WeatherTracker,2013-05-12 03:07:00,
2013-05-11 23:09:00,65.1,63.3,29.82,WNW,294,0.0,0.0,94,0.01,,,0.14,WeatherTracker,2013-05-12 03:09:00,
2013-05-11 23:10:00,65.1,63.3,29.82,WNW,294,0.0,0.0,94,0.01,,,0.14,WeatherTracker,2013-05-12 03:10:00,
2013-05-11 23:12:00,65.1,63.3,29.82,WNW,294,0.0,0.0,94,0.00,,,0.14,WeatherTracker,2013-05-12 03:12:00,
2013-05-11 23:15:00,65.1,63.3,29.82,WNW,294,0.0,0.0,94,0.00,,,0.14,WeatherTracker,2013-05-12 03:15:00,
2013-05-11 23:16:00,65.1,63.6,29.82,WNW,294,0.0,0.0,95,0.00,,,0.14,WeatherTracker,2013-05-12 03:16:00,
2013-05-11 23:17:00,65.1,63.6,29.82,WNW,294,0.0,0.0,95,0.00,,,0.14,WeatherTracker,2013-05-12 03:17:00,
2013-05-11 23:21:00,65.2,63.7,29.81,WNW,294,0.0,0.0,95,0.00,,,0.14,WeatherTracker,2013-05-12 03:21:00,
2013-05-11 23:22:00,65.2,63.7,29.81,WNW,285,0.0,0.0,95,0.00,,,0.14,WeatherTracker,2013-05-12 03:22:00,
2013-05-11 23:26:00,65.1,63.6,29.81,WNW,285,0.0,0.0,95,0.00,,,0.14,WeatherTracker,2013-05-12 03:26:00,
2013-05-11 23:27:00,65.1,63.6,29.81,WNW,285,0.0,0.0,95,0.00,,,0.14,WeatherTracker,2013-05-12 03:27:00,
2013-05-11 23:28:00,65.1,63.6,29.81,WNW,285,0.0,0.0,95,0.00,,,0.14,WeatherTracker,2013-05-12 03:28:00,
2013-05-11 23:29:00,65.0,63.5,29.81,WNW,285,0.0,0.0,95,0.00,,,0.14,WeatherTracker,2013-05-12 03:29:00,
2013-05-11 23:32:00,65.0,63.5,29.81,WNW,285,1.0,0.0,95,0.00,,,0.14,WeatherTracker,2013-05-12 03:32:00,
2013-05-11 23:33:00,65.0,63.5,29.81,WNW,285,0.0,0.0,95,0.00,,,0.14,WeatherTracker,2013-05-12 03:33:00,
2013-05-11 23:35:00,64.9,63.4,29.81,WNW,285,0.0,0.0,95,0.00,,,0.14,WeatherTracker,2013-05-12 03:35:00,
2013-05-11 23:38:00,64.9,63.4,29.80,WNW,285,0.0,0.0,95,0.00,,,0.14,WeatherTracker,2013-05-12 03:38:00,
2013-05-11 23:39:00,64.9,63.4,29.80,WNW,285,0.0,0.0,95,0.00,,,0.14,WeatherTracker,2013-05-12 03:39:00,
2013-05-11 23:40:00,64.8,63.3,29.80,WNW,285,0.0,0.0,95,0.00,,,0.14,WeatherTracker,2013-05-12 03:40:00,
2013-05-11 23:43:00,64.7,63.2,29.80,WNW,285,0.0,0.0,95,0.00,,,0.14,WeatherTracker,2013-05-12 03:43:00,
2013-05-11 23:44:00,64.7,63.2,29.80,WNW,285,0.0,0.0,95,0.00,,,0.14,WeatherTracker,2013-05-12 03:44:00,
2013-05-11 23:46:00,64.7,63.2,29.81,WNW,285,0.0,0.0,95,0.00,,,0.14,WeatherTracker,2013-05-12 03:46:00,
2013-05-11 23:47:00,64.7,63.2,29.81,WNW,285,0.0,0.0,95,0.00,,,0.14,WeatherTracker,2013-05-12 03:47:00,
2013-05-11 23:49:00,64.6,63.1,29.81,WNW,285,0.0,0.0,95,0.00,,,0.14,WeatherTracker,2013-05-12 03:49:00,
2013-05-11 23:50:00,64.6,63.1,29.81,WNW,285,0.0,0.0,95,0.00,,,0.14,WeatherTracker,2013-05-12 03:50:00,
2013-05-11 23:51:00,64.6,63.1,29.81,WNW,285,0.0,0.0,95,0.00,,,0.14,WeatherTracker,2013-05-12 03:51:00,
2013-05-11 23:52:00,64.6,63.1,29.81,WNW,285,0.0,0.0,95,0.00,,,0.14,WeatherTracker,2013-05-12 03:52:00,
2013-05-11 23:55:00,64.5,63.0,29.80,WNW,285,0.0,0.0,95,0.00,,,0.14,WeatherTracker,2013-05-12 03:55:00,
2013-05-11 23:56:00,64.5,63.0,29.80,WNW,285,0.0,0.0,95,0.00,,,0.14,WeatherTracker,2013-05-12 03:56:00,
2013-05-11 23:57:00,64.5,63.0,29.80,WNW,285,0.0,0.0,95,0.00,,,0.14,WeatherTracker,2013-05-12 03:57:00,